Time,TemperatureF,DewpointF,PressureIn,WindDirection,WindDirectionDegrees,WindSpeedMPH,WindSpeedGustMPH,Humidity,HourlyPrecipIn,Conditions,Clouds,dailyrainin,SoftwareType,DateUTC
2013-03-05 00:00:00,32.7,30.1,29.97,NNW,335,4.0,6.0,90,0.02,,,0.03,VWS V13.01,2013-03-05 04:00:00,
2013-03-05 00:05:00,32.9,30.3,29.98,NNW,337,0.0,4.0,90,0.00,,,0.03,VWS V13.01,2013-03-05 04:05:00,
2013-03-05 00:10:00,32.9,30.3,29.98,NNW,337,0.0,0.0,90,0.00,,,0.03,VWS V13.01,2013-03-05 04:10:00,
2013-03-05 00:11:00,32.9,30.3,29.98,NNW,337,0.0,0.0,90,0.00,,,0.03,VWS V13.01,2013-03-05 04:11:00,
2013-03-05 00:16:00,32.9,30.3,29.98,WNW,295,2.0,6.0,90,0.00,,,0.03,VWS V13.01,2013-03-05 04:16:00,
2013-03-05 00:17:00,32.7,30.1,29.98,WNW,295,0.0,4.0,90,0.00,,,0.03,VWS V13.01,2013-03-05 04:17:00,
2013-03-05 00:21:00,32.9,30.3,29.98,NW,305,0.0,12.0,90,0.00,,,0.03,VWS V13.01,2013-03-05 04:21:00,
2013-03-05 00:22:00,32.9,30.3,29.98,NW,305,0.0,6.0,90,0.00,,,0.03,VWS V13.01,2013-03-05 04:22:00,
2013-03-05 00:26:00,32.7,30.1,29.98,NW,305,4.0,6.0,90,0.00,,,0.03,VWS V13.01,2013-03-05 04:26:00,
2013-03-05 00:27:00,32.7,30.1,29.98,NW,305,6.0,6.0,90,0.00,,,0.03,VWS V13.01,2013-03-05 04:27:00,
2013-03-05 00:28:00,32.8,30.2,29.98,NW,306,2.0,6.0,90,0.00,,,0.03,VWS V13.01,2013-03-05 04:28:00,
2013-03-05 00:30:00,32.5,30.2,30.01,WNW,301,2.0,10.0,91,0.00,,SCT055,0.03,VWS V14.01,2013-03-05 04:30:00,
2013-03-05 00:32:00,32.7,30.1,29.99,WNW,298,6.0,10.0,90,0.00,,,0.03,VWS V13.01,2013-03-05 04:32:00,
2013-03-05 00:33:00,32.9,30.3,29.99,WNW,298,0.0,6.0,90,0.00,,,0.03,VWS V13.01,2013-03-05 04:33:00,
2013-03-05 00:37:00,32.8,30.2,29.99,NNW,332,12.0,14.0,90,0.00,,,0.03,VWS V13.01,2013-03-05 04:37:00,
2013-03-05 00:38:00,32.9,30.3,29.99,NW,308,4.0,14.0,90,0.00,,,0.03,VWS V13.01,2013-03-05 04:38:00,
2013-03-05 00:42:00,32.7,30.1,29.99,NW,319,2.0,12.0,90,0.00,,,0.03,VWS V13.01,2013-03-05 04:42:00,
2013-03-05 00:43:00,32.8,30.2,29.99,NW,319,0.0,12.0,90,0.00,,,0.03,VWS V13.01,2013-03-05 04:43:00,
2013-03-05 00:44:00,32.9,30.3,29.99,NW,319,10.0,10.0,90,0.00,,,0.03,VWS V13.01,2013-03-05 04:44:00,
2013-03-05 00:48:00,32.7,30.4,30.01,NW,306,4.0,16.0,91,0.00,,,0.03,VWS V13.01,2013-03-05 04:48:00,
2013-03-05 00:49:00,32.9,30.6,30.01,NW,306,4.0,10.0,91,0.00,,,0.03,VWS V13.01,2013-03-05 04:49:00,
2013-03-05 00:53:00,32.8,30.5,30.01,NW,308,4.0,6.0,91,0.00,,,0.03,VWS V13.01,2013-03-05 04:53:00,
2013-03-05 00:54:00,32.8,30.5,30.01,NW,308,6.0,6.0,91,0.00,,,0.03,VWS V13.01,2013-03-05 04:54:00,
2013-03-05 00:58:00,32.7,30.4,30.01,NW,312,0.0,10.0,91,0.00,,,0.03,VWS V13.01,2013-03-05 04:58:00,
2013-03-05 00:59:00,32.7,30.4,30.01,NW,312,0.0,10.0,91,0.00,,,0.03,VWS V13.01,2013-03-05 04:59:00,
2013-03-05 01:00:00,32.9,30.6,30.01,NW,312,0.0,4.0,91,0.00,,,0.03,VWS V13.01,2013-03-05 05:00:00,
2013-03-05 01:05:00,32.7,30.4,30.01,NW,305,0.0,0.0,91,0.00,,,0.03,VWS V13.01,2013-03-05 05:05:00,
2013-03-05 01:06:00,32.7,30.4,30.01,NW,322,6.0,10.0,91,0.00,,,0.03,VWS V13.01,2013-03-05 05:06:00,
2013-03-05 01:10:00,32.7,30.4,30.01,NW,322,0.0,0.0,91,0.00,,,0.03,VWS V13.01,2013-03-05 05:10:00,
2013-03-05 01:11:00,32.7,30.4,30.01,NW,322,0.0,0.0,91,0.00,,,0.03,VWS V13.01,2013-03-05 05:11:00,
2013-03-05 01:15:00,32.5,30.2,30.01,NW,322,0.0,6.0,91,0.00,,,0.03,VWS V13.01,2013-03-05 05:15:00,
2013-03-05 01:16:00,32.7,30.4,30.01,NW,322,0.0,2.0,91,0.00,,,0.03,VWS V13.01,2013-03-05 05:16:00,
2013-03-05 01:21:00,32.8,30.5,30.01,NW,320,0.0,4.0,91,0.00,,,0.03,VWS V13.01,2013-03-05 05:21:00,
2013-03-05 01:22:00,32.5,30.2,30.01,NW,320,0.0,0.0,91,0.00,,,0.03,VWS V13.01,2013-03-05 05:22:00,
2013-03-05 01:26:00,32.5,30.2,30.01,WNW,291,0.0,2.0,91,0.00,,,0.03,VWS V13.01,2013-03-05 05:26:00,
2013-03-05 01:27:00,32.5,30.2,30.01,WNW,291,4.0,4.0,91,0.00,,,0.03,VWS V13.01,2013-03-05 05:27:00,
2013-03-05 01:30:00,30.4,17.0,30.03,NW,319,6.0,28.0,57,0.00,,SCT055,0.00,VWS V14.01,2013-03-05 05:30:00,
2013-03-05 01:31:00,32.8,30.5,30.01,WNW,301,4.0,10.0,91,0.00,,,0.03,VWS V13.01,2013-03-05 05:31:00,
2013-03-05 01:33:00,32.5,30.2,30.01,WNW,301,6.0,6.0,91,0.00,,,0.03,VWS V13.01,2013-03-05 05:33:00,
2013-03-05 01:36:00,32.5,30.2,30.01,North,0,22.0,22.0,91,0.00,,,0.03,VWS V13.01,2013-03-05 05:36:00,
2013-03-05 01:37:00,32.5,30.2,30.01,North,0,16.0,22.0,91,0.00,,,0.03,VWS V13.01,2013-03-05 05:37:00,
2013-03-05 01:38:00,32.1,29.5,30.01,WNW,301,6.0,22.0,90,0.00,,,0.03,VWS V13.01,2013-03-05 05:38:00,
2013-03-05 01:42:00,31.8,29.2,30.01,NW,316,14.0,24.0,90,0.00,,,0.03,VWS V13.01,2013-03-05 05:42:00,
2013-03-05 01:44:00,31.0,27.9,30.01,North,350,8.0,22.0,88,0.00,,,0.03,VWS V13.01,2013-03-05 05:44:00,
2013-03-05 01:47:00,30.6,27.2,30.02,North,354,16.0,22.0,87,0.00,,,0.03,VWS V13.01,2013-03-05 05:47:00,
2013-03-05 01:48:00,30.4,26.7,30.02,NW,318,36.0,36.0,86,0.00,,,0.03,VWS V13.01,2013-03-05 05:48:00,
2013-03-05 01:49:00,30.3,26.1,30.02,NW,319,16.0,36.0,84,0.00,,,0.03,VWS V13.01,2013-03-05 05:49:00,
2013-03-05 01:52:00,30.1,25.0,30.02,NNW,346,16.0,16.0,81,0.00,,,0.03,VWS V13.01,2013-03-05 05:52:00,
2013-03-05 01:53:00,30.1,24.1,30.02,NW,318,8.0,22.0,78,0.00,,,0.03,VWS V13.01,2013-03-05 05:53:00,
2013-03-05 01:55:00,30.3,23.7,30.02,NNW,336,10.0,20.0,76,0.00,,,0.03,VWS V13.01,2013-03-05 05:55:00,
2013-03-05 01:57:00,30.3,23.3,30.02,NNW,330,10.0,22.0,75,0.00,,,0.03,VWS V13.01,2013-03-05 05:57:00,
2013-03-05 01:58:00,30.3,22.7,30.02,NNW,330,16.0,22.0,73,0.00,,,0.03,VWS V13.01,2013-03-05 05:58:00,
2013-03-05 02:00:00,30.3,22.0,30.02,NW,318,8.0,16.0,71,0.00,,,0.03,VWS V13.01,2013-03-05 06:00:00,
2013-03-05 02:02:00,30.4,21.5,30.02,NNW,333,16.0,22.0,69,0.00,,,0.00,VWS V13.01,2013-03-05 06:02:00,
2013-03-05 02:03:00,30.4,21.1,30.02,NNW,335,12.0,22.0,68,0.00,,,0.00,VWS V13.01,2013-03-05 06:03:00,
2013-03-05 02:04:00,30.4,20.8,30.02,NNE,13,16.0,22.0,67,0.00,,,0.00,VWS V13.01,2013-03-05 06:04:00,
2013-03-05 02:06:00,30.4,20.4,30.02,NW,313,10.0,16.0,66,0.00,,,0.00,VWS V13.01,2013-03-05 06:06:00,
2013-03-05 02:07:00,30.4,20.1,30.02,NNW,332,10.0,16.0,65,0.00,,,0.00,VWS V13.01,2013-03-05 06:07:00,
2013-03-05 02:08:00,30.6,20.2,30.02,NW,320,14.0,26.0,65,0.00,,,0.00,VWS V13.01,2013-03-05 06:08:00,
2013-03-05 02:09:00,30.6,19.9,30.02,NNW,347,20.0,26.0,64,0.00,,,0.00,VWS V13.01,2013-03-05 06:09:00,
2013-03-05 02:11:00,30.6,19.9,30.02,WNW,295,2.0,14.0,64,0.00,,,0.00,VWS V13.01,2013-03-05 06:11:00,
2013-03-05 02:12:00,30.6,19.9,30.02,NW,313,12.0,14.0,64,0.00,,,0.00,VWS V13.01,2013-03-05 06:12:00,
2013-03-05 02:13:00,30.6,19.5,30.02,NW,315,4.0,16.0,63,0.00,,,0.00,VWS V13.01,2013-03-05 06:13:00,
2013-03-05 02:14:00,30.6,19.5,30.02,WNW,288,14.0,16.0,63,0.00,,,0.00,VWS V13.01,2013-03-05 06:14:00,
2013-03-05 02:16:00,30.6,19.5,30.03,NNW,330,8.0,16.0,63,0.00,,,0.00,VWS V13.01,2013-03-05 06:16:00,
2013-03-05 02:17:00,30.6,19.5,30.03,WNW,282,0.0,12.0,63,0.00,,,0.00,VWS V13.01,2013-03-05 06:17:00,
2013-03-05 02:19:00,30.6,19.5,30.03,WNW,295,10.0,12.0,63,0.00,,,0.00,VWS V13.01,2013-03-05 06:19:00,
2013-03-05 02:21:00,30.6,18.8,30.03,NW,326,16.0,16.0,61,0.00,,,0.00,VWS V13.01,2013-03-05 06:21:00,
2013-03-05 02:22:00,30.6,18.4,30.03,NW,323,12.0,22.0,60,0.00,,,0.00,VWS V13.01,2013-03-05 06:22:00,
2013-03-05 02:24:00,30.4,18.2,30.03,West,281,12.0,24.0,60,0.00,,,0.00,VWS V13.01,2013-03-05 06:24:00,
2013-03-05 02:27:00,30.4,17.4,30.03,NNW,329,28.0,28.0,58,0.00,,,0.00,VWS V13.01,2013-03-05 06:27:00,
2013-03-05 02:29:00,30.4,17.4,30.03,NW,315,12.0,30.0,58,0.00,,,0.00,VWS V13.01,2013-03-05 06:29:00,
2013-03-05 02:30:00,30.4,17.8,30.03,North,350,28.0,28.0,59,0.00,,,0.00,VWS V13.01,2013-03-05 06:30:00,
2013-03-05 02:32:00,30.4,17.0,30.03,NW,320,14.0,28.0,57,0.00,,,0.00,VWS V13.01,2013-03-05 06:32:00,
2013-03-05 02:33:00,30.4,17.0,30.03,NNW,344,32.0,32.0,57,0.00,,,0.00,VWS V13.01,2013-03-05 06:33:00,
2013-03-05 02:34:00,30.4,17.0,30.03,NNW,332,14.0,32.0,57,0.00,,,0.00,VWS V13.01,2013-03-05 06:34:00,
2013-03-05 02:36:00,30.3,16.9,30.03,West,270,20.0,28.0,57,0.00,,,0.00,VWS V13.01,2013-03-05 06:36:00,
2013-03-05 02:37:00,30.3,16.9,30.03,NW,319,4.0,28.0,57,0.00,,,0.00,VWS V13.01,2013-03-05 06:37:00,
2013-03-05 02:38:00,30.3,16.9,30.03,NNW,336,28.0,36.0,57,0.00,,,0.00,VWS V13.01,2013-03-05 06:38:00,
2013-03-05 02:39:00,30.3,16.9,30.03,North,354,4.0,36.0,57,0.00,,,0.00,VWS V13.01,2013-03-05 06:39:00,
2013-03-05 02:41:00,30.3,16.9,30.03,NW,322,12.0,26.0,57,0.00,,,0.00,VWS V13.01,2013-03-05 06:41:00,
2013-03-05 02:43:00,30.3,16.9,30.03,NW,322,20.0,34.0,57,0.00,,,0.00,VWS V13.01,2013-03-05 06:43:00,
2013-03-05 02:44:00,30.1,16.7,30.03,NNW,329,12.0,32.0,57,0.00,,,0.00,VWS V13.01,2013-03-05 06:44:00,
2013-03-05 02:46:00,30.1,17.1,30.04,West,280,22.0,22.0,58,0.00,,,0.00,VWS V13.01,2013-03-05 06:46:00,
2013-03-05 02:48:00,30.1,16.7,30.04,NW,316,14.0,22.0,57,0.00,,,0.00,VWS V13.01,2013-03-05 06:48:00,
2013-03-05 02:50:00,30.0,16.6,30.04,NNW,330,20.0,26.0,57,0.00,,,0.00,VWS V13.01,2013-03-05 06:50:00,
2013-03-05 02:51:00,30.0,16.6,30.04,North,349,34.0,38.0,57,0.00,,,0.00,VWS V13.01,2013-03-05 06:51:00,
2013-03-05 02:53:00,30.0,16.6,30.04,NW,312,4.0,36.0,57,0.00,,,0.00,VWS V13.01,2013-03-05 06:53:00,
2013-03-05 02:54:00,30.0,16.6,30.04,NW,313,12.0,34.0,57,0.00,,,0.00,VWS V13.01,2013-03-05 06:54:00,
2013-03-05 02:55:00,29.8,16.8,30.04,NNW,328,10.0,22.0,58,0.00,,,0.00,VWS V13.01,2013-03-05 06:55:00,
2013-03-05 02:56:00,29.8,16.8,30.04,NW,316,12.0,20.0,58,0.00,,,0.00,VWS V13.01,2013-03-05 06:56:00,
2013-03-05 02:58:00,29.8,16.8,30.04,NW,312,10.0,16.0,58,0.00,,,0.00,VWS V13.01,2013-03-05 06:58:00,
2013-03-05 02:59:00,29.8,16.8,30.04,WNW,299,16.0,20.0,58,0.00,,,0.00,VWS V13.01,2013-03-05 06:59:00,
2013-03-05 03:00:00,29.7,16.8,30.05,NNW,336,24.0,24.0,58,0.00,,,0.00,VWS V13.01,2013-03-05 07:00:00,
2013-03-05 03:02:00,29.7,16.8,30.05,NNW,337,14.0,28.0,58,0.00,,,0.00,VWS V13.01,2013-03-05 07:02:00,
2013-03-05 03:03:00,29.5,16.6,30.05,NW,319,12.0,28.0,58,0.00,,,0.00,VWS V13.01,2013-03-05 07:03:00,
2013-03-05 03:04:00,29.5,16.6,30.05,WNW,284,14.0,24.0,58,0.00,,,0.00,VWS V13.01,2013-03-05 07:04:00,
2013-03-05 03:06:00,29.4,16.5,30.05,NNW,336,4.0,32.0,58,0.00,,,0.00,VWS V13.01,2013-03-05 07:06:00,
2013-03-05 03:07:00,29.4,16.5,30.05,NNW,330,8.0,20.0,58,0.00,,,0.00,VWS V13.01,2013-03-05 07:07:00,
2013-03-05 03:08:00,29.4,16.9,30.05,West,271,4.0,16.0,59,0.00,,,0.00,VWS V13.01,2013-03-05 07:08:00,
2013-03-05 03:09:00,29.4,16.9,30.05,NNW,330,12.0,16.0,59,0.00,,,0.00,VWS V13.01,2013-03-05 07:09:00,
2013-03-05 03:11:00,29.3,16.8,30.05,NNW,330,12.0,20.0,59,0.00,,,0.00,VWS V13.01,2013-03-05 07:11:00,
2013-03-05 03:12:00,29.3,16.8,30.05,NW,316,14.0,20.0,59,0.00,,,0.00,VWS V13.01,2013-03-05 07:12:00,
2013-03-05 03:13:00,29.3,16.8,30.05,North,349,10.0,16.0,59,0.00,,,0.00,VWS V13.01,2013-03-05 07:13:00,
2013-03-05 03:14:00,29.3,16.8,30.05,NW,320,10.0,16.0,59,0.00,,,0.00,VWS V13.01,2013-03-05 07:14:00,
2013-03-05 03:17:00,29.1,17.0,30.06,NW,323,4.0,12.0,60,0.00,,,0.00,VWS V13.01,2013-03-05 07:17:00,
2013-03-05 03:18:00,29.1,17.0,30.06,NW,326,12.0,22.0,60,0.00,,,0.00,VWS V13.01,2013-03-05 07:18:00,
2013-03-05 03:19:00,29.1,17.0,30.06,North,0,12.0,22.0,60,0.00,,,0.00,VWS V13.01,2013-03-05 07:19:00,
2013-03-05 03:22:00,29.0,16.9,30.06,NW,325,10.0,26.0,60,0.00,,,0.00,VWS V13.01,2013-03-05 07:22:00,
2013-03-05 03:24:00,29.0,16.9,30.06,NNW,328,20.0,32.0,60,0.00,,,0.00,VWS V13.01,2013-03-05 07:24:00,
2013-03-05 03:27:00,28.8,16.7,30.06,NW,326,10.0,24.0,60,0.00,,,0.00,VWS V13.01,2013-03-05 07:27:00,
2013-03-05 03:29:00,28.8,16.7,30.06,NNW,335,14.0,28.0,60,0.00,,,0.00,VWS V13.01,2013-03-05 07:29:00,
2013-03-05 03:30:00,26.9,16.4,30.06,NNW,335,0.0,12.0,64,0.00,,SCT055,0.00,VWS V14.01,2013-03-05 07:30:00,
2013-03-05 03:32:00,28.7,16.6,30.06,North,7,0.0,18.0,60,0.00,,,0.00,VWS V13.01,2013-03-05 07:32:00,
2013-03-05 03:34:00,28.7,17.0,30.06,NNW,330,20.0,26.0,61,0.00,,,0.00,VWS V13.01,2013-03-05 07:34:00,
2013-03-05 03:37:00,28.5,16.8,30.06,NW,320,8.0,14.0,61,0.00,,,0.00,VWS V13.01,2013-03-05 07:37:00,
2013-03-05 03:40:00,28.5,16.8,30.06,NW,315,4.0,14.0,61,0.00,,,0.00,VWS V13.01,2013-03-05 07:40:00,
2013-03-05 03:42:00,28.4,16.7,30.06,NW,326,14.0,14.0,61,0.00,,,0.00,VWS V13.01,2013-03-05 07:42:00,
2013-03-05 03:43:00,28.4,16.7,30.06,NW,319,14.0,22.0,61,0.00,,,0.00,VWS V13.01,2013-03-05 07:43:00,
2013-03-05 03:45:00,28.4,17.1,30.06,NNW,328,12.0,16.0,62,0.00,,,0.00,VWS V13.01,2013-03-05 07:45:00,
2013-03-05 03:47:00,28.2,16.9,30.05,NW,304,12.0,20.0,62,0.00,,,0.00,VWS V13.01,2013-03-05 07:47:00,
2013-03-05 03:48:00,28.2,16.9,30.05,NW,309,10.0,20.0,62,0.00,,,0.00,VWS V13.01,2013-03-05 07:48:00,
2013-03-05 03:50:00,28.1,16.8,30.05,NNW,335,8.0,12.0,62,0.00,,,0.00,VWS V13.01,2013-03-05 07:50:00,
2013-03-05 03:53:00,27.9,16.6,30.05,NNW,328,8.0,24.0,62,0.00,,,0.00,VWS V13.01,2013-03-05 07:53:00,
2013-03-05 03:55:00,27.9,16.6,30.05,NNW,332,12.0,22.0,62,0.00,,,0.00,VWS V13.01,2013-03-05 07:55:00,
2013-03-05 03:58:00,27.8,16.5,30.05,West,265,2.0,16.0,62,0.00,,,0.00,VWS V13.01,2013-03-05 07:58:00,
2013-03-05 04:00:00,27.8,16.5,30.05,West,271,4.0,26.0,62,0.00,,,0.00,VWS V13.01,2013-03-05 08:00:00,
2013-03-05 04:01:00,27.6,16.3,30.06,NNW,330,12.0,26.0,62,0.00,,,0.00,VWS V13.01,2013-03-05 08:01:00,
2013-03-05 04:03:00,27.6,15.9,30.06,NW,312,12.0,22.0,61,0.00,,,0.00,VWS V13.01,2013-03-05 08:03:00,
2013-03-05 04:05:00,27.6,15.9,30.06,NNW,328,10.0,26.0,61,0.00,,,0.00,VWS V13.01,2013-03-05 08:05:00,
2013-03-05 04:06:00,27.6,15.9,30.06,NNW,340,2.0,26.0,61,0.00,,,0.00,VWS V13.01,2013-03-05 08:06:00,
2013-03-05 04:08:00,27.5,16.2,30.06,NW,325,4.0,12.0,62,0.00,,,0.00,VWS V13.01,2013-03-05 08:08:00,
2013-03-05 04:11:00,27.5,16.2,30.06,NNW,330,12.0,12.0,62,0.00,,,0.00,VWS V13.01,2013-03-05 08:11:00,
2013-03-05 04:13:00,27.3,16.0,30.06,WNW,294,4.0,12.0,62,0.00,,,0.00,VWS V13.01,2013-03-05 08:13:00,
2013-03-05 04:14:00,27.3,16.4,30.06,NW,318,6.0,12.0,63,0.00,,,0.00,VWS V13.01,2013-03-05 08:14:00,
2013-03-05 04:16:00,27.2,16.3,30.06,WNW,299,12.0,22.0,63,0.00,,,0.00,VWS V13.01,2013-03-05 08:16:00,
2013-03-05 04:17:00,27.2,16.3,30.06,West,274,8.0,22.0,63,0.00,,,0.00,VWS V13.01,2013-03-05 08:17:00,
2013-03-05 04:18:00,27.2,16.3,30.06,WNW,299,6.0,14.0,63,0.00,,,0.00,VWS V13.01,2013-03-05 08:18:00,
2013-03-05 04:19:00,27.2,16.3,30.06,WNW,298,8.0,14.0,63,0.00,,,0.00,VWS V13.01,2013-03-05 08:19:00,
2013-03-05 04:21:00,27.0,16.1,30.06,WNW,295,10.0,18.0,63,0.00,,,0.00,VWS V13.01,2013-03-05 08:21:00,
2013-03-05 04:22:00,27.0,16.1,30.06,NE,41,12.0,18.0,63,0.00,,,0.00,VWS V13.01,2013-03-05 08:22:00,
2013-03-05 04:24:00,27.0,16.1,30.06,WNW,282,10.0,14.0,63,0.00,,,0.00,VWS V13.01,2013-03-05 08:24:00,
2013-03-05 04:27:00,27.0,16.1,30.06,NNW,335,6.0,16.0,63,0.00,,,0.00,VWS V13.01,2013-03-05 08:27:00,
2013-03-05 04:29:00,26.9,16.4,30.06,NW,309,6.0,12.0,64,0.00,,,0.00,VWS V13.01,2013-03-05 08:29:00,
2013-03-05 04:30:00,26.1,16.0,30.06,SW,226,14.0,22.0,65,0.00,,SCT055,0.00,VWS V14.01,2013-03-05 08:30:00,
2013-03-05 04:32:00,26.9,16.4,30.06,West,268,6.0,12.0,64,0.00,,,0.00,VWS V13.01,2013-03-05 08:32:00,
2013-03-05 04:34:00,26.7,16.2,30.06,NW,316,18.0,22.0,64,0.00,,,0.00,VWS V13.01,2013-03-05 08:34:00,
2013-03-05 04:38:00,26.7,16.2,30.06,NNW,335,10.0,18.0,64,0.00,,,0.00,VWS V13.01,2013-03-05 08:38:00,
2013-03-05 04:39:00,26.7,16.2,30.06,NW,318,14.0,16.0,64,0.00,,,0.00,VWS V13.01,2013-03-05 08:39:00,
2013-03-05 04:40:00,26.6,16.1,30.06,NNW,335,12.0,16.0,64,0.00,,,0.00,VWS V13.01,2013-03-05 08:40:00,
2013-03-05 04:43:00,26.6,16.1,30.06,NW,315,4.0,24.0,64,0.00,,,0.00,VWS V13.01,2013-03-05 08:43:00,
2013-03-05 04:44:00,26.6,16.1,30.06,NNW,333,6.0,24.0,64,0.00,,,0.00,VWS V13.01,2013-03-05 08:44:00,
2013-03-05 04:45:00,26.6,16.1,30.06,NW,306,6.0,24.0,64,0.00,,,0.00,VWS V13.01,2013-03-05 08:45:00,
2013-03-05 04:48:00,26.6,16.1,30.06,NW,306,4.0,16.0,64,0.00,,,0.00,VWS V13.01,2013-03-05 08:48:00,
2013-03-05 04:49:00,26.6,16.1,30.06,NW,323,4.0,20.0,64,0.00,,,0.00,VWS V13.01,2013-03-05 08:49:00,
2013-03-05 04:50:00,26.6,16.1,30.06,North,356,10.0,20.0,64,0.00,,,0.00,VWS V13.01,2013-03-05 08:50:00,
2013-03-05 04:53:00,26.4,15.9,30.06,WNW,301,14.0,14.0,64,0.00,,,0.00,VWS V13.01,2013-03-05 08:53:00,
2013-03-05 04:54:00,26.4,15.9,30.06,WNW,282,14.0,20.0,64,0.00,,,0.00,VWS V13.01,2013-03-05 08:54:00,
2013-03-05 04:55:00,26.4,15.9,30.06,WNW,299,8.0,20.0,64,0.00,,,0.00,VWS V13.01,2013-03-05 08:55:00,
2013-03-05 04:59:00,26.3,15.8,30.06,WNW,295,16.0,16.0,64,0.00,,,0.00,VWS V13.01,2013-03-05 08:59:00,
2013-03-05 05:00:00,26.3,15.8,30.06,NW,319,10.0,22.0,64,0.00,,,0.00,VWS V13.01,2013-03-05 09:00:00,
2013-03-05 05:01:00,26.3,15.8,30.06,NW,319,8.0,22.0,64,0.00,,,0.00,VWS V13.01,2013-03-05 09:01:00,
2013-03-05 05:04:00,26.3,15.8,30.06,WNW,289,4.0,14.0,64,0.00,,,0.00,VWS V13.01,2013-03-05 09:04:00,
2013-03-05 05:05:00,26.3,15.8,30.06,WNW,289,2.0,14.0,64,0.00,,,0.00,VWS V13.01,2013-03-05 09:05:00,
2013-03-05 05:06:00,26.3,15.8,30.06,WNW,289,4.0,14.0,64,0.00,,,0.00,VWS V13.01,2013-03-05 09:06:00,
2013-03-05 05:09:00,26.1,15.6,30.06,NNW,330,14.0,14.0,64,0.00,,,0.00,VWS V13.01,2013-03-05 09:09:00,
2013-03-05 05:10:00,26.1,15.6,30.06,NW,322,12.0,16.0,64,0.00,,,0.00,VWS V13.01,2013-03-05 09:10:00,
2013-03-05 05:11:00,26.1,15.6,30.06,WNW,291,4.0,16.0,64,0.00,,,0.00,VWS V13.01,2013-03-05 09:11:00,
2013-03-05 05:15:00,26.1,15.6,30.06,WNW,282,6.0,20.0,64,0.00,,,0.00,VWS V13.01,2013-03-05 09:15:00,
2013-03-05 05:16:00,26.1,15.6,30.06,WNW,284,0.0,20.0,64,0.00,,,0.00,VWS V13.01,2013-03-05 09:16:00,
2013-03-05 05:20:00,26.1,16.0,30.06,NNW,328,4.0,26.0,65,0.00,,,0.00,VWS V13.01,2013-03-05 09:20:00,
2013-03-05 05:21:00,26.1,16.0,30.06,NNW,329,16.0,24.0,65,0.00,,,0.00,VWS V13.01,2013-03-05 09:21:00,
2013-03-05 05:25:00,26.1,16.0,30.06,NNW,335,4.0,16.0,65,0.00,,,0.00,VWS V13.01,2013-03-05 09:25:00,
2013-03-05 05:26:00,26.1,16.0,30.06,NNW,337,12.0,14.0,65,0.00,,,0.00,VWS V13.01,2013-03-05 09:26:00,
2013-03-05 05:30:00,26.1,16.0,30.06,WSW,256,8.0,22.0,65,0.00,,,0.00,VWS V13.01,2013-03-05 09:30:00,
2013-03-05 05:31:00,26.1,16.0,30.06,WNW,296,16.0,22.0,65,0.00,,,0.00,VWS V13.01,2013-03-05 09:31:00,
2013-03-05 05:33:00,26.0,15.5,30.06,NW,311,22.0,24.0,64,0.00,,,0.00,VWS V13.01,2013-03-05 09:33:00,
2013-03-05 05:35:00,26.0,15.1,30.06,WSW,239,12.0,30.0,63,0.00,,,0.00,VWS V13.01,2013-03-05 09:35:00,
2013-03-05 05:36:00,26.0,15.1,30.06,WNW,282,24.0,28.0,63,0.00,,,0.00,VWS V13.01,2013-03-05 09:36:00,
2013-03-05 05:37:00,26.0,15.1,30.06,NNW,328,10.0,24.0,63,0.00,,,0.00,VWS V13.01,2013-03-05 09:37:00,
2013-03-05 05:39:00,25.8,15.0,30.06,WNW,288,10.0,14.0,63,0.00,,,0.00,VWS V13.01,2013-03-05 09:39:00,
2013-03-05 05:41:00,25.8,14.6,30.06,WNW,284,22.0,22.0,62,0.00,,,0.00,VWS V13.01,2013-03-05 09:41:00,
2013-03-05 05:42:00,25.8,14.6,30.06,NW,316,20.0,26.0,62,0.00,,,0.00,VWS V13.01,2013-03-05 09:42:00,
2013-03-05 05:44:00,25.7,14.1,30.06,WNW,284,16.0,36.0,61,0.00,,,0.00,VWS V13.01,2013-03-05 09:44:00,
2013-03-05 05:46:00,25.7,14.1,30.07,WNW,302,8.0,26.0,61,0.00,,,0.00,VWS V13.01,2013-03-05 09:46:00,
2013-03-05 05:48:00,25.6,14.0,30.07,NW,308,16.0,34.0,61,0.00,,,0.00,VWS V13.01,2013-03-05 09:48:00,
2013-03-05 05:49:00,25.6,14.0,30.07,WNW,301,26.0,34.0,61,0.00,,,0.00,VWS V13.01,2013-03-05 09:49:00,
2013-03-05 05:51:00,25.6,13.7,30.07,NW,322,16.0,28.0,60,0.00,,,0.00,VWS V13.01,2013-03-05 09:51:00,
2013-03-05 05:52:00,25.6,13.7,30.07,NNW,333,8.0,28.0,60,0.00,,,0.00,VWS V13.01,2013-03-05 09:52:00,
2013-03-05 05:54:00,25.6,13.7,30.07,NNW,333,12.0,16.0,60,0.00,,,0.00,VWS V13.01,2013-03-05 09:54:00,
2013-03-05 05:56:00,25.4,13.5,30.07,NW,318,6.0,24.0,60,0.00,,,0.00,VWS V13.01,2013-03-05 09:56:00,
2013-03-05 05:57:00,25.4,13.5,30.07,NNW,330,12.0,24.0,60,0.00,,,0.00,VWS V13.01,2013-03-05 09:57:00,
2013-03-05 05:59:00,25.4,13.5,30.07,NW,313,10.0,24.0,60,0.00,,,0.00,VWS V13.01,2013-03-05 09:59:00,
2013-03-05 06:00:00,25.4,13.5,30.07,NW,315,8.0,24.0,60,0.00,,,0.00,VWS V13.01,2013-03-05 10:00:00,
2013-03-05 06:01:00,25.4,13.8,30.07,NNW,333,12.0,16.0,61,0.00,,,0.00,VWS V13.01,2013-03-05 10:01:00,
2013-03-05 06:02:00,25.3,13.8,30.07,NW,313,6.0,16.0,61,0.00,,,0.00,VWS V13.01,2013-03-05 10:02:00,
2013-03-05 06:05:00,25.3,13.8,30.07,NNW,330,0.0,14.0,61,0.00,,,0.00,VWS V13.01,2013-03-05 10:05:00,
2013-03-05 06:07:00,25.3,13.8,30.07,NNW,335,6.0,20.0,61,0.00,,,0.00,VWS V13.01,2013-03-05 10:07:00,
2013-03-05 06:08:00,25.1,13.6,30.07,NNW,333,6.0,12.0,61,0.00,,,0.00,VWS V13.01,2013-03-05 10:08:00,
2013-03-05 06:10:00,25.1,13.6,30.07,WNW,284,12.0,16.0,61,0.00,,,0.00,VWS V13.01,2013-03-05 10:10:00,
2013-03-05 06:11:00,25.1,13.6,30.07,NNW,335,14.0,16.0,61,0.00,,,0.00,VWS V13.01,2013-03-05 10:11:00,
2013-03-05 06:13:00,25.0,13.8,30.07,West,278,6.0,12.0,62,0.00,,,0.00,VWS V13.01,2013-03-05 10:13:00,
2013-03-05 06:15:00,25.0,13.8,30.07,NW,316,12.0,22.0,62,0.00,,,0.00,VWS V13.01,2013-03-05 10:15:00,
2013-03-05 06:16:00,25.0,13.8,30.07,NW,318,14.0,22.0,62,0.00,,,0.00,VWS V13.01,2013-03-05 10:16:00,
2013-03-05 06:18:00,24.8,14.0,30.07,NW,306,2.0,12.0,63,0.00,,,0.00,VWS V13.01,2013-03-05 10:18:00,
2013-03-05 06:19:00,24.8,14.0,30.07,WNW,291,8.0,22.0,63,0.00,,,0.00,VWS V13.01,2013-03-05 10:19:00,
2013-03-05 06:21:00,24.8,14.0,30.07,NNW,330,8.0,22.0,63,0.00,,,0.00,VWS V13.01,2013-03-05 10:21:00,
2013-03-05 06:23:00,24.7,13.9,30.07,WNW,288,8.0,14.0,63,0.00,,,0.00,VWS V13.01,2013-03-05 10:23:00,
2013-03-05 06:24:00,24.7,13.9,30.07,NNW,329,16.0,20.0,63,0.00,,,0.00,VWS V13.01,2013-03-05 10:24:00,
2013-03-05 06:26:00,24.7,13.9,30.07,West,271,28.0,30.0,63,0.00,,,0.00,VWS V13.01,2013-03-05 10:26:00,
2013-03-05 06:28:00,24.7,14.3,30.07,WNW,282,12.0,24.0,64,0.00,,,0.00,VWS V13.01,2013-03-05 10:28:00,
2013-03-05 06:30:00,24.7,14.3,30.07,NNW,332,12.0,24.0,64,0.00,,,0.00,VWS V13.01,2013-03-05 10:30:00,
2013-03-05 06:31:00,24.5,14.1,30.08,NW,311,14.0,18.0,64,0.00,,,0.00,VWS V13.01,2013-03-05 10:31:00,
2013-03-05 06:33:00,24.5,14.1,30.08,NNW,343,34.0,34.0,64,0.00,,,0.00,VWS V13.01,2013-03-05 10:33:00,
2013-03-05 06:35:00,24.5,13.7,30.08,NW,320,12.0,34.0,63,0.00,,,0.00,VWS V13.01,2013-03-05 10:35:00,
2013-03-05 06:36:00,24.5,13.7,30.08,WSW,251,8.0,34.0,63,0.00,,,0.00,VWS V13.01,2013-03-05 10:36:00,
2013-03-05 06:37:00,24.5,13.7,30.08,NNW,337,24.0,24.0,63,0.00,,,0.00,VWS V13.01,2013-03-05 10:37:00,
2013-03-05 06:39:00,24.5,13.7,30.08,NNW,329,12.0,14.0,63,0.00,,,0.00,VWS V13.01,2013-03-05 10:39:00,
2013-03-05 06:40:00,24.5,13.7,30.08,North,354,16.0,26.0,63,0.00,,,0.00,VWS V13.01,2013-03-05 10:40:00,
2013-03-05 06:41:00,24.4,13.6,30.08,WNW,294,16.0,26.0,63,0.00,,,0.00,VWS V13.01,2013-03-05 10:41:00,
2013-03-05 06:42:00,24.5,13.7,30.08,NW,325,16.0,28.0,63,0.00,,,0.00,VWS V13.01,2013-03-05 10:42:00,
2013-03-05 06:45:00,24.4,13.3,30.08,NNW,335,18.0,28.0,62,0.00,,,0.00,VWS V13.01,2013-03-05 10:45:00,
2013-03-05 06:46:00,24.4,13.3,30.08,NW,323,12.0,28.0,62,0.00,,,0.00,VWS V13.01,2013-03-05 10:46:00,
2013-03-05 06:47:00,24.5,13.4,30.08,NW,322,12.0,24.0,62,0.00,,,0.00,VWS V13.01,2013-03-05 10:47:00,
2013-03-05 06:48:00,24.4,13.3,30.08,West,277,14.0,18.0,62,0.00,,,0.00,VWS V13.01,2013-03-05 10:48:00,
2013-03-05 06:51:00,24.4,13.3,30.08,NW,312,6.0,18.0,62,0.00,,,0.00,VWS V13.01,2013-03-05 10:51:00,
2013-03-05 06:52:00,24.4,13.3,30.08,NW,313,10.0,14.0,62,0.00,,,0.00,VWS V13.01,2013-03-05 10:52:00,
2013-03-05 06:53:00,24.4,13.3,30.08,WNW,302,20.0,20.0,62,0.00,,,0.00,VWS V13.01,2013-03-05 10:53:00,
2013-03-05 06:56:00,24.4,13.3,30.08,West,274,8.0,14.0,62,0.00,,,0.00,VWS V13.01,2013-03-05 10:56:00,
2013-03-05 06:58:00,24.4,13.3,30.08,NW,316,16.0,24.0,62,0.00,,,0.00,VWS V13.01,2013-03-05 10:58:00,
2013-03-05 07:00:00,23.6,13.2,30.10,West,275,6.0,24.0,64,0.00,,SCT055,0.00,VWS V14.01,2013-03-05 11:00:00,
2013-03-05 07:01:00,24.4,13.6,30.09,WNW,301,6.0,20.0,63,0.00,,,0.00,VWS V13.01,2013-03-05 11:01:00,
2013-03-05 07:03:00,24.2,13.4,30.09,West,277,26.0,26.0,63,0.00,,,0.00,VWS V13.01,2013-03-05 11:03:00,
2013-03-05 07:06:00,24.2,13.4,30.09,WNW,295,10.0,18.0,63,0.00,,,0.00,VWS V13.01,2013-03-05 11:06:00,
2013-03-05 07:07:00,24.2,13.4,30.09,WNW,288,10.0,18.0,63,0.00,,,0.00,VWS V13.01,2013-03-05 11:07:00,
2013-03-05 07:08:00,24.2,13.4,30.09,NW,326,14.0,22.0,63,0.00,,,0.00,VWS V13.01,2013-03-05 11:08:00,
2013-03-05 07:09:00,24.2,13.4,30.09,NNW,329,8.0,22.0,63,0.00,,,0.00,VWS V13.01,2013-03-05 11:09:00,
2013-03-05 07:11:00,24.2,13.4,30.09,NW,309,14.0,14.0,63,0.00,,,0.00,VWS V13.01,2013-03-05 11:11:00,
2013-03-05 07:12:00,24.1,13.3,30.09,NW,318,16.0,18.0,63,0.00,,,0.00,VWS V13.01,2013-03-05 11:12:00,
2013-03-05 07:14:00,24.1,13.7,30.09,NW,320,10.0,16.0,64,0.00,,,0.00,VWS V13.01,2013-03-05 11:14:00,
2013-03-05 07:16:00,24.1,13.7,30.09,West,277,4.0,20.0,64,0.00,,,0.00,VWS V13.01,2013-03-05 11:16:00,
2013-03-05 07:17:00,24.1,13.7,30.09,NW,322,12.0,18.0,64,0.00,,,0.00,VWS V13.01,2013-03-05 11:17:00,
2013-03-05 07:19:00,24.1,13.7,30.09,WNW,301,10.0,12.0,64,0.00,,,0.00,VWS V13.01,2013-03-05 11:19:00,
2013-03-05 07:22:00,23.9,13.5,30.09,WSW,254,4.0,12.0,64,0.00,,,0.00,VWS V13.01,2013-03-05 11:22:00,
2013-03-05 07:23:00,23.9,13.5,30.09,WNW,299,4.0,12.0,64,0.00,,,0.00,VWS V13.01,2013-03-05 11:23:00,
2013-03-05 07:24:00,23.9,13.5,30.09,NW,309,6.0,12.0,64,0.00,,,0.00,VWS V13.01,2013-03-05 11:24:00,
2013-03-05 07:25:00,23.9,13.5,30.09,NW,311,6.0,12.0,64,0.00,,,0.00,VWS V13.01,2013-03-05 11:25:00,
2013-03-05 07:27:00,23.9,13.5,30.09,NW,311,10.0,16.0,64,0.00,,,0.00,VWS V13.01,2013-03-05 11:27:00,
2013-03-05 07:28:00,23.9,13.5,30.09,NNW,343,20.0,20.0,64,0.00,,,0.00,VWS V13.01,2013-03-05 11:28:00,
2013-03-05 07:30:00,23.8,13.4,30.09,NW,323,10.0,14.0,64,0.00,,,0.00,VWS V13.01,2013-03-05 11:30:00,
2013-03-05 07:33:00,23.8,13.4,30.10,WNW,285,6.0,16.0,64,0.00,,,0.00,VWS V13.01,2013-03-05 11:33:00,
2013-03-05 07:35:00,23.8,13.4,30.10,NW,305,8.0,12.0,64,0.00,,,0.00,VWS V13.01,2013-03-05 11:35:00,
2013-03-05 07:38:00,23.8,13.4,30.10,NNW,339,14.0,16.0,64,0.00,,,0.00,VWS V13.01,2013-03-05 11:38:00,
2013-03-05 07:40:00,23.8,13.4,30.10,WNW,291,12.0,16.0,64,0.00,,,0.00,VWS V13.01,2013-03-05 11:40:00,
2013-03-05 07:43:00,23.6,13.2,30.10,NW,318,10.0,16.0,64,0.00,,,0.00,VWS V13.01,2013-03-05 11:43:00,
2013-03-05 07:44:00,23.6,13.2,30.10,NW,313,10.0,14.0,64,0.00,,,0.00,VWS V13.01,2013-03-05 11:44:00,
2013-03-05 07:45:00,23.6,13.2,30.10,NW,305,22.0,22.0,64,0.00,,,0.00,VWS V13.01,2013-03-05 11:45:00,
2013-03-05 07:48:00,23.6,13.2,30.10,NW,312,6.0,18.0,64,0.00,,,0.00,VWS V13.01,2013-03-05 11:48:00,
2013-03-05 07:49:00,23.6,13.2,30.10,NNW,330,12.0,18.0,64,0.00,,,0.00,VWS V13.01,2013-03-05 11:49:00,
2013-03-05 07:51:00,23.6,13.2,30.10,NNW,329,16.0,26.0,64,0.00,,,0.00,VWS V13.01,2013-03-05 11:51:00,
2013-03-05 07:54:00,23.6,13.2,30.10,WNW,288,6.0,18.0,64,0.00,,,0.00,VWS V13.01,2013-03-05 11:54:00,
2013-03-05 07:55:00,23.6,13.2,30.10,WNW,296,6.0,18.0,64,0.00,,,0.00,VWS V13.01,2013-03-05 11:55:00,
2013-03-05 07:56:00,23.6,13.2,30.10,NNW,337,16.0,16.0,64,0.00,,,0.00,VWS V13.01,2013-03-05 11:56:00,
2013-03-05 07:57:00,23.6,13.2,30.10,NW,325,14.0,22.0,64,0.00,,,0.00,VWS V13.01,2013-03-05 11:57:00,
2013-03-05 07:59:00,23.6,13.2,30.10,NW,313,12.0,22.0,64,0.00,,,0.00,VWS V13.01,2013-03-05 11:59:00,
2013-03-05 08:00:00,25.0,14.6,30.11,WNW,295,16.0,26.0,64,0.00,,SCT055,0.00,VWS V14.01,2013-03-05 12:00:00,
2013-03-05 08:01:00,23.6,13.2,30.10,WNW,298,10.0,24.0,64,0.00,,,0.00,VWS V13.01,2013-03-05 12:01:00,
2013-03-05 08:02:00,23.6,13.2,30.10,NNW,339,12.0,26.0,64,0.00,,,0.00,VWS V13.01,2013-03-05 12:02:00,
2013-03-05 08:05:00,23.8,13.4,30.10,NW,305,4.0,26.0,64,0.00,,,0.00,VWS V13.01,2013-03-05 12:05:00,
2013-03-05 08:06:00,23.8,13.4,30.10,WNW,294,10.0,26.0,64,0.00,,,0.00,VWS V13.01,2013-03-05 12:06:00,
2013-03-05 08:07:00,23.8,13.4,30.10,WNW,289,20.0,22.0,64,0.00,,,0.00,VWS V13.01,2013-03-05 12:07:00,
2013-03-05 08:10:00,23.8,13.4,30.10,NW,319,4.0,22.0,64,0.00,,,0.00,VWS V13.01,2013-03-05 12:10:00,
2013-03-05 08:11:00,23.9,13.5,30.10,WNW,302,14.0,14.0,64,0.00,,,0.00,VWS V13.01,2013-03-05 12:11:00,
2013-03-05 08:13:00,23.9,13.5,30.10,West,272,14.0,16.0,64,0.00,,,0.00,VWS V13.01,2013-03-05 12:13:00,
2013-03-05 08:15:00,23.9,13.5,30.10,NW,308,6.0,16.0,64,0.00,,,0.00,VWS V13.01,2013-03-05 12:15:00,
2013-03-05 08:16:00,23.9,13.9,30.10,NW,312,10.0,14.0,65,0.00,,,0.00,VWS V13.01,2013-03-05 12:16:00,
2013-03-05 08:17:00,23.9,13.9,30.10,NW,305,12.0,14.0,65,0.00,,,0.00,VWS V13.01,2013-03-05 12:17:00,
2013-03-05 08:18:00,23.9,13.9,30.10,NW,304,0.0,14.0,65,0.00,,,0.00,VWS V13.01,2013-03-05 12:18:00,
2013-03-05 08:20:00,23.9,13.9,30.10,WNW,288,8.0,14.0,65,0.00,,,0.00,VWS V13.01,2013-03-05 12:20:00,
2013-03-05 08:21:00,24.1,14.1,30.10,NNW,330,20.0,20.0,65,0.00,,,0.00,VWS V13.01,2013-03-05 12:21:00,
2013-03-05 08:22:00,24.1,13.7,30.10,NNW,332,20.0,22.0,64,0.00,,,0.00,VWS V13.01,2013-03-05 12:22:00,
2013-03-05 08:23:00,24.1,13.7,30.10,NW,325,14.0,22.0,64,0.00,,,0.00,VWS V13.01,2013-03-05 12:23:00,
2013-03-05 08:25:00,24.1,13.7,30.10,WSW,258,6.0,14.0,64,0.00,,,0.00,VWS V13.01,2013-03-05 12:25:00,
2013-03-05 08:27:00,24.1,13.7,30.10,West,270,10.0,14.0,64,0.00,,,0.00,VWS V13.01,2013-03-05 12:27:00,
2013-03-05 08:28:00,24.1,13.7,30.10,NNW,330,10.0,18.0,64,0.00,,,0.00,VWS V13.01,2013-03-05 12:28:00,
2013-03-05 08:30:00,24.2,14.1,30.10,WSW,247,18.0,18.0,65,0.00,,,0.00,VWS V13.01,2013-03-05 12:30:00,
2013-03-05 08:32:00,24.2,13.8,30.11,West,267,14.0,24.0,64,0.00,,,0.00,VWS V13.01,2013-03-05 12:32:00,
2013-03-05 08:33:00,24.2,13.8,30.11,WSW,258,10.0,24.0,64,0.00,,,0.00,VWS V13.01,2013-03-05 12:33:00,
2013-03-05 08:35:00,24.2,13.8,30.11,West,278,8.0,18.0,64,0.00,,,0.00,VWS V13.01,2013-03-05 12:35:00,
2013-03-05 08:37:00,24.4,14.3,30.11,NNW,329,6.0,14.0,65,0.00,,,0.00,VWS V13.01,2013-03-05 12:37:00,
2013-03-05 08:38:00,24.4,14.3,30.11,NW,312,14.0,20.0,65,0.00,,,0.00,VWS V13.01,2013-03-05 12:38:00,
2013-03-05 08:39:00,24.4,14.3,30.11,West,264,10.0,20.0,65,0.00,,,0.00,VWS V13.01,2013-03-05 12:39:00,
2013-03-05 08:40:00,24.4,14.3,30.11,NNE,31,22.0,22.0,65,0.00,,,0.00,VWS V13.01,2013-03-05 12:40:00,
2013-03-05 08:42:00,24.4,14.3,30.11,NNW,332,14.0,22.0,65,0.00,,,0.00,VWS V13.01,2013-03-05 12:42:00,
2013-03-05 08:43:00,24.4,14.3,30.11,NNW,339,12.0,18.0,65,0.00,,,0.00,VWS V13.01,2013-03-05 12:43:00,
2013-03-05 08:44:00,24.5,14.4,30.11,NW,325,20.0,24.0,65,0.00,,,0.00,VWS V13.01,2013-03-05 12:44:00,
2013-03-05 08:46:00,24.5,14.4,30.11,WNW,301,6.0,22.0,65,0.00,,,0.00,VWS V13.01,2013-03-05 12:46:00,
2013-03-05 08:47:00,24.5,14.4,30.11,NW,309,2.0,22.0,65,0.00,,,0.00,VWS V13.01,2013-03-05 12:47:00,
2013-03-05 08:49:00,24.5,14.4,30.11,NW,323,22.0,22.0,65,0.00,,,0.00,VWS V13.01,2013-03-05 12:49:00,
2013-03-05 08:51:00,24.7,14.3,30.11,West,272,10.0,32.0,64,0.00,,,0.00,VWS V13.01,2013-03-05 12:51:00,
2013-03-05 08:52:00,24.7,14.6,30.11,NW,322,18.0,24.0,65,0.00,,,0.00,VWS V13.01,2013-03-05 12:52:00,
2013-03-05 08:54:00,24.7,14.3,30.11,NW,325,16.0,24.0,64,0.00,,,0.00,VWS V13.01,2013-03-05 12:54:00,
2013-03-05 08:56:00,24.8,14.4,30.11,WNW,284,18.0,32.0,64,0.00,,,0.00,VWS V13.01,2013-03-05 12:56:00,
2013-03-05 08:58:00,24.8,14.4,30.11,WNW,291,16.0,24.0,64,0.00,,,0.00,VWS V13.01,2013-03-05 12:58:00,
2013-03-05 08:59:00,25.0,14.6,30.11,NNW,339,26.0,28.0,64,0.00,,,0.00,VWS V13.01,2013-03-05 12:59:00,
2013-03-05 09:00:00,25.0,14.6,30.11,West,281,20.0,28.0,64,0.00,,,0.00,VWS V13.01,2013-03-05 13:00:00,
2013-03-05 09:02:00,25.0,14.6,30.11,NW,323,14.0,26.0,64,0.00,,,0.00,VWS V13.01,2013-03-05 13:02:00,
2013-03-05 09:03:00,25.1,14.6,30.11,WNW,292,12.0,22.0,64,0.00,,,0.00,VWS V13.01,2013-03-05 13:03:00,
2013-03-05 09:05:00,25.1,14.6,30.11,West,278,16.0,22.0,64,0.00,,,0.00,VWS V13.01,2013-03-05 13:05:00,
2013-03-05 09:07:00,25.1,14.6,30.11,West,260,12.0,24.0,64,0.00,,,0.00,VWS V13.01,2013-03-05 13:07:00,
2013-03-05 09:08:00,25.1,14.6,30.11,North,359,22.0,24.0,64,0.00,,,0.00,VWS V13.01,2013-03-05 13:08:00,
2013-03-05 09:10:00,25.3,14.8,30.11,NW,309,12.0,24.0,64,0.00,,,0.00,VWS V13.01,2013-03-05 13:10:00,
2013-03-05 09:12:00,25.3,14.8,30.11,WNW,285,6.0,16.0,64,0.00,,,0.00,VWS V13.01,2013-03-05 13:12:00,
2013-03-05 09:13:00,25.3,14.8,30.11,WNW,294,6.0,12.0,64,0.00,,,0.00,VWS V13.01,2013-03-05 13:13:00,
2013-03-05 09:15:00,25.3,14.8,30.11,NNW,332,16.0,26.0,64,0.00,,,0.00,VWS V13.01,2013-03-05 13:15:00,
2013-03-05 09:16:00,25.3,14.8,30.11,NNW,333,16.0,26.0,64,0.00,,,0.00,VWS V13.01,2013-03-05 13:16:00,
2013-03-05 09:17:00,25.4,14.9,30.11,NW,318,22.0,22.0,64,0.00,,,0.00,VWS V13.01,2013-03-05 13:17:00,
2013-03-05 09:18:00,25.4,14.9,30.11,WNW,296,10.0,22.0,64,0.00,,,0.00,VWS V13.01,2013-03-05 13:18:00,
2013-03-05 09:21:00,25.4,14.9,30.11,NNW,347,12.0,30.0,64,0.00,,,0.00,VWS V13.01,2013-03-05 13:21:00,
2013-03-05 09:22:00,25.4,14.9,30.11,NNW,346,8.0,26.0,64,0.00,,,0.00,VWS V13.01,2013-03-05 13:22:00,
2013-03-05 09:23:00,25.4,14.9,30.11,SW,226,6.0,26.0,64,0.00,,,0.00,VWS V13.01,2013-03-05 13:23:00,
2013-03-05 09:26:00,25.6,15.1,30.11,WNW,287,12.0,16.0,64,0.00,,,0.00,VWS V13.01,2013-03-05 13:26:00,
2013-03-05 09:27:00,25.6,15.1,30.11,NW,323,6.0,22.0,64,0.00,,,0.00,VWS V13.01,2013-03-05 13:27:00,
2013-03-05 09:28:00,25.6,15.1,30.11,NW,319,12.0,16.0,64,0.00,,,0.00,VWS V13.01,2013-03-05 13:28:00,
2013-03-05 09:30:00,26.1,16.0,30.15,WNW,294,22.0,22.0,65,0.00,,SCT055,0.00,VWS V14.01,2013-03-05 13:30:00,
2013-03-05 09:31:00,25.7,15.2,30.11,NW,309,16.0,26.0,64,0.00,,,0.00,VWS V13.01,2013-03-05 13:31:00,
2013-03-05 09:32:00,25.7,15.2,30.11,NNW,347,14.0,26.0,64,0.00,,,0.00,VWS V13.01,2013-03-05 13:32:00,
2013-03-05 09:33:00,25.7,15.2,30.11,WSW,240,20.0,24.0,64,0.00,,,0.00,VWS V13.01,2013-03-05 13:33:00,
2013-03-05 09:34:00,25.7,15.2,30.11,NNW,329,34.0,34.0,64,0.00,,,0.00,VWS V13.01,2013-03-05 13:34:00,
2013-03-05 09:36:00,25.8,15.3,30.11,NW,318,18.0,24.0,64,0.00,,,0.00,VWS V13.01,2013-03-05 13:36:00,
2013-03-05 09:37:00,25.8,15.3,30.11,NW,322,12.0,24.0,64,0.00,,,0.00,VWS V13.01,2013-03-05 13:37:00,
2013-03-05 09:38:00,26.0,15.5,30.11,WNW,301,14.0,16.0,64,0.00,,,0.00,VWS V13.01,2013-03-05 13:38:00,
2013-03-05 09:39:00,25.8,15.3,30.11,NW,309,16.0,20.0,64,0.00,,,0.00,VWS V13.01,2013-03-05 13:39:00,
2013-03-05 09:42:00,26.0,15.5,30.11,WNW,282,4.0,24.0,64,0.00,,,0.00,VWS V13.01,2013-03-05 13:42:00,
2013-03-05 09:44:00,26.0,15.5,30.11,NW,306,4.0,24.0,64,0.00,,,0.00,VWS V13.01,2013-03-05 13:44:00,
2013-03-05 09:47:00,26.1,15.6,30.12,NNW,342,14.0,24.0,64,0.00,,,0.00,VWS V13.01,2013-03-05 13:47:00,
2013-03-05 09:48:00,26.0,15.5,30.12,West,264,26.0,26.0,64,0.00,,,0.00,VWS V13.01,2013-03-05 13:48:00,
2013-03-05 09:49:00,26.1,15.6,30.12,WNW,292,16.0,26.0,64,0.00,,,0.00,VWS V13.01,2013-03-05 13:49:00,
2013-03-05 09:52:00,26.1,15.6,30.12,West,261,22.0,32.0,64,0.00,,,0.00,VWS V13.01,2013-03-05 13:52:00,
2013-03-05 09:53:00,26.1,15.6,30.12,NNW,342,26.0,26.0,64,0.00,,,0.00,VWS V13.01,2013-03-05 13:53:00,
2013-03-05 09:54:00,26.1,15.6,30.12,NNW,339,22.0,28.0,64,0.00,,,0.00,VWS V13.01,2013-03-05 13:54:00,
2013-03-05 09:57:00,26.1,15.6,30.12,NNW,332,8.0,28.0,64,0.00,,,0.00,VWS V13.01,2013-03-05 13:57:00,
2013-03-05 09:58:00,26.1,15.6,30.12,WNW,302,20.0,28.0,64,0.00,,,0.00,VWS V13.01,2013-03-05 13:58:00,
2013-03-05 09:59:00,26.1,15.6,30.12,NW,318,14.0,32.0,64,0.00,,,0.00,VWS V13.01,2013-03-05 13:59:00,
2013-03-05 10:00:00,26.4,15.9,30.16,NNW,336,14.0,32.0,64,0.00,,SCT055,0.00,VWS V14.01,2013-03-05 14:00:00,
2013-03-05 10:03:00,26.1,16.0,30.13,NW,311,12.0,30.0,65,0.00,,,0.00,VWS V13.01,2013-03-05 14:03:00,
2013-03-05 10:04:00,26.1,16.0,30.13,WNW,288,40.0,40.0,65,0.00,,,0.00,VWS V13.01,2013-03-05 14:04:00,
2013-03-05 10:08:00,26.1,16.0,30.13,NNW,335,14.0,28.0,65,0.00,,,0.00,VWS V13.01,2013-03-05 14:08:00,
2013-03-05 10:10:00,26.1,16.0,30.13,WNW,299,16.0,36.0,65,0.00,,,0.00,VWS V13.01,2013-03-05 14:10:00,
2013-03-05 10:13:00,26.1,16.0,30.13,NW,304,8.0,28.0,65,0.00,,,0.00,VWS V13.01,2013-03-05 14:13:00,
2013-03-05 10:15:00,26.1,16.0,30.13,NW,309,22.0,34.0,65,0.00,,,0.00,VWS V13.01,2013-03-05 14:15:00,
2013-03-05 10:16:00,26.1,16.0,30.14,North,353,26.0,34.0,65,0.00,,,0.00,VWS V13.01,2013-03-05 14:16:00,
2013-03-05 10:18:00,26.1,16.0,30.14,NW,305,20.0,32.0,65,0.00,,,0.00,VWS V13.01,2013-03-05 14:18:00,
2013-03-05 10:19:00,26.1,16.0,30.14,WNW,301,32.0,32.0,65,0.00,,,0.00,VWS V13.01,2013-03-05 14:19:00,
2013-03-05 10:20:00,26.1,16.0,30.14,West,281,10.0,32.0,65,0.00,,,0.00,VWS V13.01,2013-03-05 14:20:00,
2013-03-05 10:21:00,26.1,16.0,30.14,NNW,330,10.0,34.0,65,0.00,,,0.00,VWS V13.01,2013-03-05 14:21:00,
2013-03-05 10:23:00,26.1,16.0,30.14,NNW,328,26.0,34.0,65,0.00,,,0.00,VWS V13.01,2013-03-05 14:23:00,
2013-03-05 10:24:00,26.1,16.0,30.14,WNW,294,12.0,34.0,65,0.00,,,0.00,VWS V13.01,2013-03-05 14:24:00,
2013-03-05 10:25:00,26.1,16.0,30.14,NW,326,22.0,48.0,65,0.00,,,0.00,VWS V13.01,2013-03-05 14:25:00,
2013-03-05 10:27:00,26.1,16.0,30.14,NW,316,14.0,26.0,65,0.00,,,0.00,VWS V13.01,2013-03-05 14:27:00,
2013-03-05 10:28:00,26.1,16.0,30.14,WNW,288,12.0,26.0,65,0.00,,,0.00,VWS V13.01,2013-03-05 14:28:00,
2013-03-05 10:29:00,26.1,16.0,30.14,NW,320,18.0,32.0,65,0.00,,,0.00,VWS V13.01,2013-03-05 14:29:00,
2013-03-05 10:30:00,26.1,16.0,30.14,West,261,12.0,32.0,65,0.00,,,0.00,VWS V13.01,2013-03-05 14:30:00,
2013-03-05 10:32:00,26.1,16.0,30.15,NNW,340,10.0,22.0,65,0.00,,,0.00,VWS V13.01,2013-03-05 14:32:00,
2013-03-05 10:33:00,26.1,16.0,30.15,NNW,330,12.0,22.0,65,0.00,,,0.00,VWS V13.01,2013-03-05 14:33:00,
2013-03-05 10:35:00,26.3,16.1,30.15,WNW,294,18.0,24.0,65,0.00,,,0.00,VWS V13.01,2013-03-05 14:35:00,
2013-03-05 10:37:00,26.3,16.1,30.15,NW,305,6.0,28.0,65,0.00,,,0.00,VWS V13.01,2013-03-05 14:37:00,
2013-03-05 10:38:00,26.3,16.1,30.15,NW,308,12.0,28.0,65,0.00,,,0.00,VWS V13.01,2013-03-05 14:38:00,
2013-03-05 10:40:00,26.3,16.1,30.15,WNW,289,14.0,24.0,65,0.00,,,0.00,VWS V13.01,2013-03-05 14:40:00,
2013-03-05 10:42:00,26.3,16.1,30.15,WNW,301,10.0,28.0,65,0.00,,,0.00,VWS V13.01,2013-03-05 14:42:00,
2013-03-05 10:43:00,26.3,16.1,30.15,NW,309,14.0,36.0,65,0.00,,,0.00,VWS V13.01,2013-03-05 14:43:00,
2013-03-05 10:45:00,26.3,16.1,30.15,NW,319,20.0,36.0,65,0.00,,,0.00,VWS V13.01,2013-03-05 14:45:00,
2013-03-05 10:47:00,26.4,16.2,30.16,NW,320,28.0,28.0,65,0.00,,,0.00,VWS V13.01,2013-03-05 14:47:00,
2013-03-05 10:48:00,26.4,16.2,30.16,WNW,292,14.0,32.0,65,0.00,,,0.00,VWS V13.01,2013-03-05 14:48:00,
2013-03-05 10:50:00,26.4,16.2,30.16,NW,318,12.0,36.0,65,0.00,,,0.00,VWS V13.01,2013-03-05 14:50:00,
2013-03-05 10:52:00,26.4,16.2,30.16,NNW,335,22.0,26.0,65,0.00,,,0.00,VWS V13.01,2013-03-05 14:52:00,
2013-03-05 10:54:00,26.4,16.2,30.16,NW,304,12.0,34.0,65,0.00,,,0.00,VWS V13.01,2013-03-05 14:54:00,
2013-03-05 10:55:00,26.4,16.2,30.16,NNW,335,18.0,26.0,65,0.00,,,0.00,VWS V13.01,2013-03-05 14:55:00,
2013-03-05 10:57:00,26.4,16.2,30.16,NNW,340,22.0,36.0,65,0.00,,,0.00,VWS V13.01,2013-03-05 14:57:00,
2013-03-05 10:58:00,26.6,16.4,30.16,North,349,12.0,36.0,65,0.00,,,0.00,VWS V13.01,2013-03-05 14:58:00,
2013-03-05 10:59:00,26.6,16.4,30.16,WNW,296,28.0,34.0,65,0.00,,,0.00,VWS V13.01,2013-03-05 14:59:00,
2013-03-05 11:00:00,26.6,16.4,30.16,NW,312,22.0,34.0,65,0.00,,,0.00,VWS V13.01,2013-03-05 15:00:00,
2013-03-05 11:02:00,26.4,15.9,30.16,NNW,330,32.0,38.0,64,0.00,,,0.00,VWS V13.01,2013-03-05 15:02:00,
2013-03-05 11:03:00,26.4,15.9,30.16,WNW,296,24.0,38.0,64,0.00,,,0.00,VWS V13.01,2013-03-05 15:03:00,
2013-03-05 11:04:00,26.4,15.9,30.16,NW,306,22.0,38.0,64,0.00,,,0.00,VWS V13.01,2013-03-05 15:04:00,
2013-03-05 11:05:00,26.4,16.2,30.16,NNW,336,6.0,26.0,65,0.00,,,0.00,VWS V13.01,2013-03-05 15:05:00,
2013-03-05 11:07:00,26.6,16.4,30.16,NNW,336,22.0,26.0,65,0.00,,,0.00,VWS V13.01,2013-03-05 15:07:00,
2013-03-05 11:08:00,26.6,16.4,30.16,NNW,336,12.0,26.0,65,0.00,,,0.00,VWS V13.01,2013-03-05 15:08:00,
2013-03-05 11:09:00,26.6,16.4,30.16,NW,320,12.0,22.0,65,0.00,,,0.00,VWS V13.01,2013-03-05 15:09:00,
2013-03-05 11:11:00,26.6,16.4,30.16,NNW,342,12.0,26.0,65,0.00,,,0.00,VWS V13.01,2013-03-05 15:11:00,
2013-03-05 11:12:00,26.6,16.4,30.16,NW,325,20.0,34.0,65,0.00,,,0.00,VWS V13.01,2013-03-05 15:12:00,
2013-03-05 11:13:00,26.6,16.4,30.16,NNW,342,20.0,34.0,65,0.00,,,0.00,VWS V13.01,2013-03-05 15:13:00,
2013-03-05 11:14:00,26.6,16.4,30.16,WNW,291,10.0,34.0,65,0.00,,,0.00,VWS V13.01,2013-03-05 15:14:00,
2013-03-05 11:16:00,26.7,16.5,30.16,WNW,285,22.0,34.0,65,0.00,,,0.00,VWS V13.01,2013-03-05 15:16:00,
2013-03-05 11:17:00,26.7,16.5,30.16,West,275,16.0,38.0,65,0.00,,,0.00,VWS V13.01,2013-03-05 15:17:00,
2013-03-05 11:18:00,26.7,16.5,30.16,WNW,292,12.0,38.0,65,0.00,,,0.00,VWS V13.01,2013-03-05 15:18:00,
2013-03-05 11:20:00,26.7,16.5,30.16,NW,305,20.0,24.0,65,0.00,,,0.00,VWS V13.01,2013-03-05 15:20:00,
2013-03-05 11:21:00,26.7,16.2,30.16,NW,311,14.0,34.0,64,0.00,,,0.00,VWS V13.01,2013-03-05 15:21:00,
2013-03-05 11:22:00,26.7,16.2,30.16,WNW,288,22.0,34.0,64,0.00,,,0.00,VWS V13.01,2013-03-05 15:22:00,
2013-03-05 11:24:00,26.7,16.2,30.16,NNW,329,26.0,38.0,64,0.00,,,0.00,VWS V13.01,2013-03-05 15:24:00,
2013-03-05 11:25:00,26.7,16.2,30.16,WNW,287,14.0,28.0,64,0.00,,,0.00,VWS V13.01,2013-03-05 15:25:00,
2013-03-05 11:26:00,26.7,16.2,30.16,NNW,330,14.0,28.0,64,0.00,,,0.00,VWS V13.01,2013-03-05 15:26:00,
2013-03-05 11:28:00,26.9,16.4,30.16,NNW,332,10.0,24.0,64,0.00,,,0.00,VWS V13.01,2013-03-05 15:28:00,
2013-03-05 11:29:00,26.9,16.4,30.16,NNW,333,12.0,24.0,64,0.00,,,0.00,VWS V13.01,2013-03-05 15:29:00,
2013-03-05 11:30:00,26.9,16.4,30.16,NW,320,12.0,24.0,64,0.00,,,0.00,VWS V13.01,2013-03-05 15:30:00,
2013-03-05 11:31:00,27.0,16.5,30.16,WNW,296,22.0,36.0,64,0.00,,,0.00,VWS V13.01,2013-03-05 15:31:00,
2013-03-05 11:33:00,27.0,16.5,30.16,NW,320,22.0,36.0,64,0.00,,,0.00,VWS V13.01,2013-03-05 15:33:00,
2013-03-05 11:34:00,27.0,16.5,30.16,WNW,285,16.0,26.0,64,0.00,,,0.00,VWS V13.01,2013-03-05 15:34:00,
2013-03-05 11:35:00,27.2,16.6,30.16,NW,322,14.0,26.0,64,0.00,,,0.00,VWS V13.01,2013-03-05 15:35:00,
2013-03-05 11:37:00,27.2,16.6,30.16,NW,323,32.0,32.0,64,0.00,,,0.00,VWS V13.01,2013-03-05 15:37:00,
2013-03-05 11:38:00,27.3,16.4,30.16,NW,322,18.0,34.0,63,0.00,,,0.00,VWS V13.01,2013-03-05 15:38:00,
2013-03-05 11:39:00,27.3,16.8,30.16,NNW,332,22.0,32.0,64,0.00,,,0.00,VWS V13.01,2013-03-05 15:39:00,
2013-03-05 11:40:00,27.3,16.8,30.16,North,350,4.0,32.0,64,0.00,,,0.00,VWS V13.01,2013-03-05 15:40:00,
2013-03-05 11:43:00,27.3,16.4,30.16,NNW,332,14.0,34.0,63,0.00,,,0.00,VWS V13.01,2013-03-05 15:43:00,
2013-03-05 11:44:00,27.3,16.4,30.16,NW,312,24.0,34.0,63,0.00,,,0.00,VWS V13.01,2013-03-05 15:44:00,
2013-03-05 11:45:00,27.3,16.4,30.16,NNW,336,26.0,34.0,63,0.00,,,0.00,VWS V13.01,2013-03-05 15:45:00,
2013-03-05 11:48:00,27.5,16.9,30.16,NNW,337,20.0,24.0,64,0.00,,,0.00,VWS V13.01,2013-03-05 15:48:00,
2013-03-05 11:50:00,27.6,17.0,30.16,NW,315,26.0,26.0,64,0.00,,,0.00,VWS V13.01,2013-03-05 15:50:00,
2013-03-05 11:53:00,27.8,16.9,30.16,West,275,10.0,32.0,63,0.00,,,0.00,VWS V13.01,2013-03-05 15:53:00,
2013-03-05 11:55:00,27.8,16.9,30.16,WNW,296,24.0,48.0,63,0.00,,,0.00,VWS V13.01,2013-03-05 15:55:00,
2013-03-05 11:59:00,27.9,17.0,30.16,NW,323,14.0,38.0,63,0.00,,,0.00,VWS V13.01,2013-03-05 15:59:00,
2013-03-05 12:00:00,27.9,17.0,30.16,NNW,340,24.0,26.0,63,0.00,,,0.00,VWS V13.01,2013-03-05 16:00:00,
2013-03-05 12:01:00,27.9,17.0,30.17,NNW,329,6.0,24.0,63,0.00,,,0.00,VWS V13.01,2013-03-05 16:01:00,
2013-03-05 12:04:00,28.1,17.1,30.17,WNW,296,16.0,36.0,63,0.00,,,0.00,VWS V13.01,2013-03-05 16:04:00,
2013-03-05 12:05:00,28.1,16.8,30.17,NW,323,16.0,32.0,62,0.00,,,0.00,VWS V13.01,2013-03-05 16:05:00,
2013-03-05 12:08:00,28.2,17.6,30.17,WNW,298,10.0,16.0,64,0.00,,,0.00,VWS V13.01,2013-03-05 16:08:00,
2013-03-05 12:09:00,28.2,17.2,30.17,NW,306,18.0,20.0,63,0.00,,,0.00,VWS V13.01,2013-03-05 16:09:00,
2013-03-05 12:10:00,28.2,17.6,30.17,North,352,18.0,26.0,64,0.00,,,0.00,VWS V13.01,2013-03-05 16:10:00,
2013-03-05 12:13:00,28.2,17.6,30.17,NNW,329,16.0,24.0,64,0.00,,,0.00,VWS V13.01,2013-03-05 16:13:00,
2013-03-05 12:14:00,28.4,17.8,30.17,NW,325,22.0,26.0,64,0.00,,,0.00,VWS V13.01,2013-03-05 16:14:00,
2013-03-05 12:15:00,28.2,17.2,30.18,NW,306,20.0,42.0,63,0.00,,,0.00,VWS V13.01,2013-03-05 16:15:00,
2013-03-05 12:18:00,28.2,17.2,30.18,NNW,328,30.0,36.0,63,0.00,,,0.00,VWS V13.01,2013-03-05 16:18:00,
2013-03-05 12:19:00,28.1,16.8,30.18,NNW,328,8.0,36.0,62,0.00,,,0.00,VWS V13.01,2013-03-05 16:19:00,
2013-03-05 12:20:00,28.1,16.8,30.18,NW,309,24.0,38.0,62,0.00,,,0.00,VWS V13.01,2013-03-05 16:20:00,
2013-03-05 12:21:00,28.1,16.8,30.18,NW,315,26.0,38.0,62,0.00,,,0.00,VWS V13.01,2013-03-05 16:21:00,
2013-03-05 12:23:00,27.9,16.6,30.18,NW,316,22.0,44.0,62,0.00,,,0.00,VWS V13.01,2013-03-05 16:23:00,
2013-03-05 12:24:00,27.9,16.6,30.18,WNW,285,12.0,44.0,62,0.00,,,0.00,VWS V13.01,2013-03-05 16:24:00,
2013-03-05 12:25:00,27.9,17.0,30.18,NW,326,20.0,24.0,63,0.00,,,0.00,VWS V13.01,2013-03-05 16:25:00,
2013-03-05 12:26:00,27.8,16.9,30.18,NNW,330,8.0,24.0,63,0.00,,,0.00,VWS V13.01,2013-03-05 16:26:00,
2013-03-05 12:29:00,27.8,16.9,30.18,NW,326,20.0,48.0,63,0.00,,,0.00,VWS V13.01,2013-03-05 16:29:00,
2013-03-05 12:30:00,27.8,16.9,30.18,NW,325,18.0,36.0,63,0.00,,,0.00,VWS V13.01,2013-03-05 16:30:00,
2013-03-05 12:31:00,27.8,16.9,30.18,NW,323,26.0,36.0,63,0.00,,,0.00,VWS V13.01,2013-03-05 16:31:00,
2013-03-05 12:34:00,27.8,16.9,30.18,NNW,332,24.0,28.0,63,0.00,,,0.00,VWS V13.01,2013-03-05 16:34:00,
2013-03-05 12:35:00,27.8,16.9,30.18,North,353,16.0,28.0,63,0.00,,,0.00,VWS V13.01,2013-03-05 16:35:00,
2013-03-05 12:36:00,27.8,17.2,30.18,North,0,24.0,30.0,64,0.00,,,0.00,VWS V13.01,2013-03-05 16:36:00,
2013-03-05 12:39:00,27.8,17.2,30.18,WNW,298,14.0,28.0,64,0.00,,,0.00,VWS V13.01,2013-03-05 16:39:00,
2013-03-05 12:40:00,27.8,17.2,30.18,NNW,330,14.0,28.0,64,0.00,,,0.00,VWS V13.01,2013-03-05 16:40:00,
2013-03-05 12:41:00,27.8,17.2,30.18,NNW,342,16.0,32.0,64,0.00,,,0.00,VWS V13.01,2013-03-05 16:41:00,
2013-03-05 12:45:00,27.8,16.9,30.18,NW,325,28.0,36.0,63,0.00,,,0.00,VWS V13.01,2013-03-05 16:45:00,
2013-03-05 12:46:00,27.8,17.2,30.19,NW,313,16.0,28.0,64,0.00,,,0.00,VWS V13.01,2013-03-05 16:46:00,
2013-03-05 12:50:00,27.8,17.2,30.19,NNW,347,16.0,22.0,64,0.00,,,0.00,VWS V13.01,2013-03-05 16:50:00,
2013-03-05 12:51:00,27.9,17.3,30.19,NNW,336,20.0,36.0,64,0.00,,,0.00,VWS V13.01,2013-03-05 16:51:00,
2013-03-05 12:55:00,27.9,17.3,30.19,North,350,36.0,38.0,64,0.00,,,0.00,VWS V13.01,2013-03-05 16:55:00,
2013-03-05 12:56:00,27.9,17.3,30.19,NNW,332,36.0,40.0,64,0.00,,,0.00,VWS V13.01,2013-03-05 16:56:00,
2013-03-05 13:00:00,27.8,17.2,30.19,NNW,337,22.0,34.0,64,0.00,,,0.00,VWS V13.01,2013-03-05 17:00:00,
2013-03-05 13:01:00,27.8,17.2,30.19,WNW,302,14.0,34.0,64,0.00,,,0.00,VWS V13.01,2013-03-05 17:01:00,
2013-03-05 13:02:00,27.8,17.2,30.19,NW,316,24.0,34.0,64,0.00,,,0.00,VWS V13.01,2013-03-05 17:02:00,
2013-03-05 13:05:00,27.8,16.9,30.19,North,0,22.0,42.0,63,0.00,,,0.00,VWS V13.01,2013-03-05 17:05:00,
2013-03-05 13:06:00,27.8,16.9,30.19,NW,320,24.0,32.0,63,0.00,,,0.00,VWS V13.01,2013-03-05 17:06:00,
2013-03-05 13:07:00,27.8,16.9,30.19,NW,319,22.0,26.0,63,0.00,,,0.00,VWS V13.01,2013-03-05 17:07:00,
2013-03-05 13:10:00,27.8,17.2,30.19,NNW,335,14.0,40.0,64,0.00,,,0.00,VWS V13.01,2013-03-05 17:10:00,
2013-03-05 13:11:00,27.8,17.2,30.19,NW,316,24.0,40.0,64,0.00,,,0.00,VWS V13.01,2013-03-05 17:11:00,
2013-03-05 13:12:00,27.8,17.2,30.19,NW,325,28.0,34.0,64,0.00,,,0.00,VWS V13.01,2013-03-05 17:12:00,
2013-03-05 13:15:00,27.8,17.2,30.19,North,359,4.0,38.0,64,0.00,,,0.00,VWS V13.01,2013-03-05 17:15:00,
2013-03-05 13:16:00,27.9,17.3,30.20,NW,320,6.0,22.0,64,0.00,,,0.00,VWS V13.01,2013-03-05 17:16:00,
2013-03-05 13:17:00,27.9,17.3,30.20,NW,322,4.0,22.0,64,0.00,,,0.00,VWS V13.01,2013-03-05 17:17:00,
2013-03-05 13:21:00,27.9,17.3,30.20,NW,316,24.0,34.0,64,0.00,,,0.00,VWS V13.01,2013-03-05 17:21:00,
2013-03-05 13:22:00,27.9,17.3,30.20,North,357,20.0,40.0,64,0.00,,,0.00,VWS V13.01,2013-03-05 17:22:00,
2013-03-05 13:26:00,27.9,17.3,30.20,NNW,344,14.0,26.0,64,0.00,,,0.00,VWS V13.01,2013-03-05 17:26:00,
2013-03-05 13:27:00,28.1,17.5,30.20,NW,319,20.0,26.0,64,0.00,,,0.00,VWS V13.01,2013-03-05 17:27:00,
2013-03-05 13:28:00,28.1,17.5,30.20,West,280,48.0,48.0,64,0.00,,,0.00,VWS V13.01,2013-03-05 17:28:00,
2013-03-05 13:30:00,28.5,17.5,30.22,NNW,332,34.0,38.0,63,0.00,,SCT055,0.00,VWS V14.01,2013-03-05 17:30:00,
2013-03-05 13:31:00,28.1,17.5,30.21,NW,323,10.0,18.0,64,0.00,,,0.00,VWS V13.01,2013-03-05 17:31:00,
2013-03-05 13:32:00,28.1,17.5,30.21,NNW,335,8.0,28.0,64,0.00,,,0.00,VWS V13.01,2013-03-05 17:32:00,
2013-03-05 13:33:00,28.1,17.5,30.21,WNW,285,22.0,28.0,64,0.00,,,0.00,VWS V13.01,2013-03-05 17:33:00,
2013-03-05 13:37:00,28.2,17.6,30.21,NW,309,18.0,22.0,64,0.00,,,0.00,VWS V13.01,2013-03-05 17:37:00,
2013-03-05 13:38:00,28.2,17.6,30.21,NW,306,10.0,22.0,64,0.00,,,0.00,VWS V13.01,2013-03-05 17:38:00,
2013-03-05 13:42:00,28.2,17.6,30.21,NNW,335,12.0,38.0,64,0.00,,,0.00,VWS V13.01,2013-03-05 17:42:00,
2013-03-05 13:43:00,28.2,17.6,30.21,NNW,329,20.0,26.0,64,0.00,,,0.00,VWS V13.01,2013-03-05 17:43:00,
2013-03-05 13:47:00,28.4,17.4,30.21,SW,233,26.0,36.0,63,0.00,,,0.00,VWS V13.01,2013-03-05 17:47:00,
2013-03-05 13:48:00,28.4,17.4,30.21,NNW,329,16.0,36.0,63,0.00,,,0.00,VWS V13.01,2013-03-05 17:48:00,
2013-03-05 13:52:00,28.4,17.4,30.21,NNW,330,10.0,40.0,63,0.00,,,0.00,VWS V13.01,2013-03-05 17:52:00,
2013-03-05 13:53:00,28.4,17.4,30.21,NW,323,36.0,36.0,63,0.00,,,0.00,VWS V13.01,2013-03-05 17:53:00,
2013-03-05 13:57:00,28.2,17.2,30.21,NW,309,22.0,38.0,63,0.00,,,0.00,VWS V13.01,2013-03-05 17:57:00,
2013-03-05 13:58:00,28.2,17.2,30.21,NNW,335,8.0,38.0,63,0.00,,,0.00,VWS V13.01,2013-03-05 17:58:00,
2013-03-05 14:00:00,30.0,16.6,30.22,NW,312,24.0,32.0,57,0.00,,SCT055,0.00,VWS V14.01,2013-03-05 18:00:00,
2013-03-05 14:02:00,28.2,17.2,30.22,NNW,339,12.0,40.0,63,0.00,,,0.00,VWS V13.01,2013-03-05 18:02:00,
2013-03-05 14:03:00,28.2,17.2,30.22,NW,318,14.0,40.0,63,0.00,,,0.00,VWS V13.01,2013-03-05 18:03:00,
2013-03-05 14:08:00,28.2,17.6,30.22,NW,322,10.0,26.0,64,0.00,,,0.00,VWS V13.01,2013-03-05 18:08:00,
2013-03-05 14:09:00,28.2,17.6,30.22,West,264,12.0,26.0,64,0.00,,,0.00,VWS V13.01,2013-03-05 18:09:00,
2013-03-05 14:13:00,28.2,17.6,30.22,NNW,333,14.0,22.0,64,0.00,,,0.00,VWS V13.01,2013-03-05 18:13:00,
2013-03-05 14:14:00,28.4,17.8,30.22,North,352,20.0,24.0,64,0.00,,,0.00,VWS V13.01,2013-03-05 18:14:00,
2013-03-05 14:18:00,28.2,17.2,30.23,NW,320,20.0,44.0,63,0.00,,,0.00,VWS V13.01,2013-03-05 18:18:00,
2013-03-05 14:19:00,28.4,17.4,30.23,North,353,22.0,44.0,63,0.00,,,0.00,VWS V13.01,2013-03-05 18:19:00,
2013-03-05 14:20:00,28.4,17.4,30.23,NW,312,26.0,28.0,63,0.00,,,0.00,VWS V13.01,2013-03-05 18:20:00,
2013-03-05 14:23:00,28.4,17.8,30.23,NW,315,10.0,38.0,64,0.00,,,0.00,VWS V13.01,2013-03-05 18:23:00,
2013-03-05 14:25:00,28.4,17.4,30.23,NW,325,20.0,34.0,63,0.00,,,0.00,VWS V13.01,2013-03-05 18:25:00,
2013-03-05 14:29:00,28.5,17.5,30.23,NW,320,22.0,34.0,63,0.00,,,0.00,VWS V13.01,2013-03-05 18:29:00,
2013-03-05 14:30:00,28.5,17.5,30.23,NW,308,14.0,34.0,63,0.00,,,0.00,VWS V13.01,2013-03-05 18:30:00,
2013-03-05 14:34:00,28.7,17.7,30.22,NW,322,28.0,36.0,63,0.00,,,0.00,VWS V13.01,2013-03-05 18:34:00,
2013-03-05 14:35:00,28.7,17.7,30.22,NNW,339,26.0,36.0,63,0.00,,,0.00,VWS V13.01,2013-03-05 18:35:00,
2013-03-05 14:36:00,28.7,17.3,30.22,NNW,337,12.0,36.0,62,0.00,,,0.00,VWS V13.01,2013-03-05 18:36:00,
2013-03-05 14:39:00,28.8,17.4,30.22,NW,325,8.0,32.0,62,0.00,,,0.00,VWS V13.01,2013-03-05 18:39:00,
2013-03-05 14:40:00,28.8,17.4,30.22,North,350,10.0,24.0,62,0.00,,,0.00,VWS V13.01,2013-03-05 18:40:00,
2013-03-05 14:41:00,28.8,17.4,30.22,NW,315,34.0,34.0,62,0.00,,,0.00,VWS V13.01,2013-03-05 18:41:00,
2013-03-05 15:00:00,30.9,17.1,30.24,NNW,332,14.0,28.0,56,0.00,,SCT055,0.00,VWS V14.01,2013-03-05 19:00:00,
2013-03-05 15:01:00,30.0,16.6,30.22,NW,312,24.0,32.0,57,0.00,,,0.00,VWS V13.01,2013-03-05 19:01:00,
2013-03-05 15:30:00,30.9,16.6,30.25,North,359,6.0,36.0,55,0.00,,SCT055,0.00,VWS V14.01,2013-03-05 19:30:00,
2013-03-05 15:31:00,31.0,17.2,30.23,NNW,343,6.0,28.0,56,0.00,,,0.00,VWS V13.01,2013-03-05 19:31:00,
2013-03-05 15:42:00,30.9,16.6,30.23,NW,322,24.0,44.0,55,0.00,,,0.00,VWS V13.01,2013-03-05 19:42:00,
2013-03-05 15:47:00,30.9,17.1,30.23,North,0,10.0,24.0,56,0.00,,,0.00,VWS V13.01,2013-03-05 19:47:00,
2013-03-05 15:48:00,30.9,17.1,30.23,NNW,337,6.0,24.0,56,0.00,,,0.00,VWS V13.01,2013-03-05 19:48:00,
2013-03-05 15:52:00,30.9,16.6,30.23,NNW,333,12.0,32.0,55,0.00,,,0.00,VWS V13.01,2013-03-05 19:52:00,
2013-03-05 15:53:00,30.9,16.6,30.23,NNW,333,6.0,32.0,55,0.00,,,0.00,VWS V13.01,2013-03-05 19:53:00,
2013-03-05 15:58:00,30.9,17.5,30.23,NNW,340,10.0,22.0,57,0.00,,,0.00,VWS V13.01,2013-03-05 19:58:00,
2013-03-05 15:59:00,30.9,17.1,30.23,NNW,343,14.0,22.0,56,0.00,,,0.00,VWS V13.01,2013-03-05 19:59:00,
2013-03-05 16:00:00,32.2,17.0,30.25,NNW,330,16.0,36.0,53,0.00,,SCT055,0.00,VWS V14.01,2013-03-05 20:00:00,
2013-03-05 16:03:00,30.9,17.1,30.24,NNW,344,18.0,28.0,56,0.00,,,0.00,VWS V13.01,2013-03-05 20:03:00,
2013-03-05 16:04:00,30.9,17.1,30.24,NW,319,10.0,26.0,56,0.00,,,0.00,VWS V13.01,2013-03-05 20:04:00,
2013-03-05 16:08:00,30.7,16.9,30.24,NNW,328,16.0,28.0,56,0.00,,,0.00,VWS V13.01,2013-03-05 20:08:00,
2013-03-05 16:09:00,30.7,16.9,30.24,NNW,336,24.0,34.0,56,0.00,,,0.00,VWS V13.01,2013-03-05 20:09:00,
2013-03-05 16:13:00,30.7,16.9,30.24,North,0,20.0,24.0,56,0.00,,,0.00,VWS V13.01,2013-03-05 20:13:00,
2013-03-05 16:14:00,30.7,16.9,30.24,NW,326,10.0,24.0,56,0.00,,,0.00,VWS V13.01,2013-03-05 20:14:00,
2013-03-05 16:18:00,30.9,16.6,30.25,NW,322,16.0,32.0,55,0.00,,,0.00,VWS V13.01,2013-03-05 20:18:00,
2013-03-05 16:19:00,30.9,16.6,30.25,North,0,26.0,32.0,55,0.00,,,0.00,VWS V13.01,2013-03-05 20:19:00,
2013-03-05 16:24:00,30.9,16.6,30.25,WNW,301,24.0,38.0,55,0.00,,,0.00,VWS V13.01,2013-03-05 20:24:00,
2013-03-05 16:25:00,30.9,16.6,30.25,NNW,346,18.0,38.0,55,0.00,,,0.00,VWS V13.01,2013-03-05 20:25:00,
2013-03-05 16:29:00,30.9,16.6,30.25,North,0,14.0,40.0,55,0.00,,,0.00,VWS V13.01,2013-03-05 20:29:00,
2013-03-05 16:30:00,30.9,16.6,30.25,North,6,10.0,40.0,55,0.00,,,0.00,VWS V13.01,2013-03-05 20:30:00,
2013-03-05 16:34:00,31.0,16.3,30.25,North,349,6.0,32.0,54,0.00,,,0.00,VWS V13.01,2013-03-05 20:34:00,
2013-03-05 16:35:00,31.0,16.7,30.25,NW,325,16.0,34.0,55,0.00,,,0.00,VWS V13.01,2013-03-05 20:35:00,
2013-03-05 16:39:00,31.3,16.6,30.25,NW,325,24.0,32.0,54,0.00,,,0.00,VWS V13.01,2013-03-05 20:39:00,
2013-03-05 16:40:00,31.3,16.6,30.25,NNW,335,38.0,38.0,54,0.00,,,0.00,VWS V13.01,2013-03-05 20:40:00,
2013-03-05 16:41:00,31.3,16.6,30.25,NW,315,20.0,38.0,54,0.00,,,0.00,VWS V13.01,2013-03-05 20:41:00,
2013-03-05 16:45:00,31.5,16.8,30.25,NNW,335,20.0,38.0,54,0.00,,,0.00,VWS V13.01,2013-03-05 20:45:00,
2013-03-05 16:46:00,31.5,16.8,30.25,NNW,339,24.0,24.0,54,0.00,,,0.00,VWS V13.01,2013-03-05 20:46:00,
2013-03-05 16:50:00,31.6,16.9,30.25,NW,316,14.0,26.0,54,0.00,,,0.00,VWS V13.01,2013-03-05 20:50:00,
2013-03-05 16:52:00,31.8,17.1,30.25,NW,320,16.0,34.0,54,0.00,,,0.00,VWS V13.01,2013-03-05 20:52:00,
2013-03-05 16:55:00,31.9,17.2,30.25,NNW,337,12.0,16.0,54,0.00,,,0.00,VWS V13.01,2013-03-05 20:55:00,
2013-03-05 16:56:00,31.9,16.7,30.25,NW,306,16.0,22.0,53,0.00,,,0.00,VWS V13.01,2013-03-05 20:56:00,
2013-03-05 17:00:00,32.1,17.3,30.25,NNE,25,14.0,26.0,54,0.00,,,0.00,VWS V13.01,2013-03-05 21:00:00,
2013-03-05 17:01:00,32.2,17.4,30.25,NNW,340,24.0,36.0,54,0.00,,,0.00,VWS V13.01,2013-03-05 21:01:00,
2013-03-05 17:02:00,32.2,17.0,30.25,North,349,14.0,36.0,53,0.00,,,0.00,VWS V13.01,2013-03-05 21:02:00,
2013-03-05 17:05:00,32.2,16.6,30.25,North,11,10.0,30.0,52,0.00,,,0.00,VWS V13.01,2013-03-05 21:05:00,
2013-03-05 17:06:00,32.4,17.2,30.25,North,352,18.0,30.0,53,0.00,,,0.00,VWS V13.01,2013-03-05 21:06:00,
2013-03-05 17:07:00,32.4,17.2,30.25,NW,309,6.0,22.0,53,0.00,,,0.00,VWS V13.01,2013-03-05 21:07:00,
2013-03-05 17:10:00,32.4,17.2,30.25,NW,325,20.0,32.0,53,0.00,,,0.00,VWS V13.01,2013-03-05 21:10:00,
2013-03-05 17:11:00,32.4,17.2,30.25,NNW,339,22.0,24.0,53,0.00,,,0.00,VWS V13.01,2013-03-05 21:11:00,
2013-03-05 17:12:00,32.4,16.8,30.25,NNW,337,14.0,32.0,52,0.00,,,0.00,VWS V13.01,2013-03-05 21:12:00,
2013-03-05 17:15:00,32.2,16.6,30.25,NNW,339,22.0,48.0,52,0.00,,,0.00,VWS V13.01,2013-03-05 21:15:00,
2013-03-05 17:16:00,32.2,16.6,30.26,NNW,339,10.0,48.0,52,0.00,,,0.00,VWS V13.01,2013-03-05 21:16:00,
2013-03-05 17:17:00,32.2,16.6,30.26,West,271,14.0,24.0,52,0.00,,,0.00,VWS V13.01,2013-03-05 21:17:00,
2013-03-05 17:21:00,32.2,17.0,30.26,NW,325,14.0,16.0,53,0.00,,,0.00,VWS V13.01,2013-03-05 21:21:00,
2013-03-05 17:22:00,32.4,16.8,30.26,NW,318,14.0,32.0,52,0.00,,,0.00,VWS V13.01,2013-03-05 21:22:00,
2013-03-05 17:26:00,32.4,17.2,30.26,NW,318,16.0,18.0,53,0.00,,,0.00,VWS V13.01,2013-03-05 21:26:00,
2013-03-05 17:27:00,32.4,17.2,30.26,WNW,284,20.0,26.0,53,0.00,,,0.00,VWS V13.01,2013-03-05 21:27:00,
2013-03-05 17:28:00,32.4,16.8,30.26,NW,319,14.0,26.0,52,0.00,,,0.00,VWS V13.01,2013-03-05 21:28:00,
2013-03-05 17:30:00,32.7,15.7,30.27,North,352,16.0,40.0,49,0.00,,SCT055,0.00,VWS V14.01,2013-03-05 21:30:00,
2013-03-05 17:31:00,32.2,16.6,30.26,NNW,329,24.0,40.0,52,0.00,,,0.00,VWS V13.01,2013-03-05 21:31:00,
2013-03-05 17:32:00,32.2,16.6,30.26,NW,319,14.0,32.0,52,0.00,,,0.00,VWS V13.01,2013-03-05 21:32:00,
2013-03-05 17:33:00,32.2,16.6,30.26,NNW,340,22.0,32.0,52,0.00,,,0.00,VWS V13.01,2013-03-05 21:33:00,
2013-03-05 17:36:00,32.2,16.6,30.26,NW,316,10.0,18.0,52,0.00,,,0.00,VWS V13.01,2013-03-05 21:36:00,
2013-03-05 17:37:00,32.2,16.6,30.26,NW,312,28.0,28.0,52,0.00,,,0.00,VWS V13.01,2013-03-05 21:37:00,
2013-03-05 17:38:00,32.2,16.6,30.26,NW,320,36.0,36.0,52,0.00,,,0.00,VWS V13.01,2013-03-05 21:38:00,
2013-03-05 17:41:00,32.2,16.6,30.26,NW,305,12.0,36.0,52,0.00,,,0.00,VWS V13.01,2013-03-05 21:41:00,
2013-03-05 17:42:00,32.2,16.6,30.26,NW,309,18.0,36.0,52,0.00,,,0.00,VWS V13.01,2013-03-05 21:42:00,
2013-03-05 17:43:00,32.2,16.6,30.26,NNW,328,22.0,28.0,52,0.00,,,0.00,VWS V13.01,2013-03-05 21:43:00,
2013-03-05 17:44:00,32.2,16.6,30.26,North,0,20.0,28.0,52,0.00,,,0.00,VWS V13.01,2013-03-05 21:44:00,
2013-03-05 17:47:00,32.2,16.6,30.26,NNW,328,14.0,22.0,52,0.00,,,0.00,VWS V13.01,2013-03-05 21:47:00,
2013-03-05 17:48:00,32.4,16.8,30.26,NW,325,14.0,26.0,52,0.00,,,0.00,VWS V13.01,2013-03-05 21:48:00,
2013-03-05 17:49:00,32.4,16.8,30.26,NNW,336,24.0,32.0,52,0.00,,,0.00,VWS V13.01,2013-03-05 21:49:00,
2013-03-05 17:52:00,32.4,16.8,30.26,North,0,16.0,26.0,52,0.00,,,0.00,VWS V13.01,2013-03-05 21:52:00,
2013-03-05 17:54:00,32.4,16.8,30.26,NNW,346,16.0,22.0,52,0.00,,,0.00,VWS V13.01,2013-03-05 21:54:00,
2013-03-05 17:55:00,32.5,16.9,30.26,NNW,342,16.0,38.0,52,0.00,,,0.00,VWS V13.01,2013-03-05 21:55:00,
2013-03-05 17:57:00,32.5,16.4,30.26,North,352,22.0,28.0,51,0.00,,,0.00,VWS V13.01,2013-03-05 21:57:00,
2013-03-05 17:58:00,32.5,16.4,30.26,North,357,16.0,28.0,51,0.00,,,0.00,VWS V13.01,2013-03-05 21:58:00,
2013-03-05 18:00:00,32.5,16.4,30.26,NNW,340,14.0,24.0,51,0.00,,,0.00,VWS V13.01,2013-03-05 22:00:00,
2013-03-05 18:02:00,32.5,16.4,30.26,NW,313,28.0,28.0,51,0.00,,,0.00,VWS V13.01,2013-03-05 22:02:00,
2013-03-05 18:03:00,32.5,15.9,30.26,NNW,330,18.0,28.0,50,0.00,,,0.00,VWS V13.01,2013-03-05 22:03:00,
2013-03-05 18:05:00,32.5,15.9,30.26,NW,313,26.0,32.0,50,0.00,,,0.00,VWS V13.01,2013-03-05 22:05:00,
2013-03-05 18:08:00,32.7,16.1,30.26,NNW,336,4.0,34.0,50,0.00,,,0.00,VWS V13.01,2013-03-05 22:08:00,
2013-03-05 18:10:00,32.7,16.1,30.26,NW,320,18.0,22.0,50,0.00,,,0.00,VWS V13.01,2013-03-05 22:10:00,
2013-03-05 18:11:00,32.7,16.1,30.26,NNW,340,10.0,22.0,50,0.00,,,0.00,VWS V13.01,2013-03-05 22:11:00,
2013-03-05 18:13:00,32.8,16.2,30.26,North,357,12.0,16.0,50,0.00,,,0.00,VWS V13.01,2013-03-05 22:13:00,
2013-03-05 18:15:00,32.8,16.2,30.26,WNW,302,20.0,34.0,50,0.00,,,0.00,VWS V13.01,2013-03-05 22:15:00,
2013-03-05 18:16:00,32.8,16.2,30.26,NNW,339,12.0,34.0,50,0.00,,,0.00,VWS V13.01,2013-03-05 22:16:00,
2013-03-05 18:18:00,32.8,16.2,30.26,NNE,21,26.0,28.0,50,0.00,,,0.00,VWS V13.01,2013-03-05 22:18:00,
2013-03-05 18:19:00,32.8,16.2,30.26,NNE,16,18.0,28.0,50,0.00,,,0.00,VWS V13.01,2013-03-05 22:19:00,
2013-03-05 18:21:00,32.8,16.2,30.26,NW,325,26.0,26.0,50,0.00,,,0.00,VWS V13.01,2013-03-05 22:21:00,
2013-03-05 18:23:00,32.8,16.2,30.26,NNE,13,8.0,26.0,50,0.00,,,0.00,VWS V13.01,2013-03-05 22:23:00,
2013-03-05 18:25:00,32.8,16.2,30.26,NW,309,14.0,20.0,50,0.00,,,0.00,VWS V13.01,2013-03-05 22:25:00,
2013-03-05 18:26:00,32.8,16.2,30.26,North,353,16.0,32.0,50,0.00,,,0.00,VWS V13.01,2013-03-05 22:26:00,
2013-03-05 18:28:00,32.7,16.1,30.26,NW,311,22.0,42.0,50,0.00,,,0.00,VWS V13.01,2013-03-05 22:28:00,
2013-03-05 18:30:00,32.7,16.1,30.26,North,0,22.0,42.0,50,0.00,,,0.00,VWS V13.01,2013-03-05 22:30:00,
2013-03-05 18:31:00,32.7,15.7,30.27,North,352,16.0,40.0,49,0.00,,,0.00,VWS V13.01,2013-03-05 22:31:00,
2013-03-05 18:32:00,32.5,15.5,30.27,NW,319,24.0,40.0,49,0.00,,,0.00,VWS V13.01,2013-03-05 22:32:00,
2013-03-05 18:34:00,32.4,15.9,30.27,NNW,347,20.0,30.0,50,0.00,,,0.00,VWS V13.01,2013-03-05 22:34:00,
2013-03-05 18:35:00,32.4,15.9,30.27,NNW,339,14.0,26.0,50,0.00,,,0.00,VWS V13.01,2013-03-05 22:35:00,
2013-03-05 18:36:00,32.4,15.9,30.27,NNW,333,12.0,26.0,50,0.00,,,0.00,VWS V13.01,2013-03-05 22:36:00,
2013-03-05 18:37:00,32.4,15.9,30.27,NW,313,20.0,26.0,50,0.00,,,0.00,VWS V13.01,2013-03-05 22:37:00,
2013-03-05 18:40:00,32.4,16.3,30.27,NW,325,12.0,24.0,51,0.00,,,0.00,VWS V13.01,2013-03-05 22:40:00,
2013-03-05 18:41:00,32.4,15.9,30.27,WNW,301,12.0,26.0,50,0.00,,,0.00,VWS V13.01,2013-03-05 22:41:00,
2013-03-05 18:42:00,32.5,15.9,30.27,WNW,298,20.0,28.0,50,0.00,,,0.00,VWS V13.01,2013-03-05 22:42:00,
2013-03-05 18:45:00,32.5,15.9,30.27,NNW,328,14.0,24.0,50,0.00,,,0.00,VWS V13.01,2013-03-05 22:45:00,
2013-03-05 18:46:00,32.5,15.9,30.27,NW,319,22.0,22.0,50,0.00,,,0.00,VWS V13.01,2013-03-05 22:46:00,
2013-03-05 18:47:00,32.5,15.9,30.27,NW,319,20.0,36.0,50,0.00,,,0.00,VWS V13.01,2013-03-05 22:47:00,
2013-03-05 18:48:00,32.5,15.9,30.27,North,352,10.0,36.0,50,0.00,,,0.00,VWS V13.01,2013-03-05 22:48:00,
2013-03-05 18:51:00,32.5,15.9,30.27,NNW,332,4.0,22.0,50,0.00,,,0.00,VWS V13.01,2013-03-05 22:51:00,
2013-03-05 18:52:00,32.5,16.4,30.27,North,359,4.0,18.0,51,0.00,,,0.00,VWS V13.01,2013-03-05 22:52:00,
2013-03-05 18:53:00,32.5,16.4,30.27,NNW,329,16.0,16.0,51,0.00,,,0.00,VWS V13.01,2013-03-05 22:53:00,
2013-03-05 18:56:00,32.7,16.6,30.27,NW,326,20.0,22.0,51,0.00,,,0.00,VWS V13.01,2013-03-05 22:56:00,
2013-03-05 18:57:00,32.7,16.6,30.27,NNW,337,14.0,22.0,51,0.00,,,0.00,VWS V13.01,2013-03-05 22:57:00,
2013-03-05 18:58:00,32.7,16.6,30.27,NNW,336,14.0,20.0,51,0.00,,,0.00,VWS V13.01,2013-03-05 22:58:00,
2013-03-05 19:00:00,31.8,16.2,30.29,North,3,20.0,24.0,52,0.00,,SCT055,0.00,VWS V14.01,2013-03-05 23:00:00,
2013-03-05 19:01:00,32.8,16.7,30.27,NNW,330,6.0,22.0,51,0.00,,,0.00,VWS V13.01,2013-03-05 23:01:00,
2013-03-05 19:02:00,32.8,16.7,30.27,NNW,330,4.0,22.0,51,0.00,,,0.00,VWS V13.01,2013-03-05 23:02:00,
2013-03-05 19:03:00,32.8,16.7,30.27,NNW,343,10.0,22.0,51,0.00,,,0.00,VWS V13.01,2013-03-05 23:03:00,
2013-03-05 19:06:00,32.8,16.2,30.27,North,352,14.0,22.0,50,0.00,,,0.00,VWS V13.01,2013-03-05 23:06:00,
2013-03-05 19:07:00,32.8,16.2,30.27,NW,312,14.0,22.0,50,0.00,,,0.00,VWS V13.01,2013-03-05 23:07:00,
2013-03-05 19:08:00,32.8,16.2,30.27,NNW,336,6.0,22.0,50,0.00,,,0.00,VWS V13.01,2013-03-05 23:08:00,
2013-03-05 19:12:00,32.8,16.2,30.27,NNW,342,20.0,22.0,50,0.00,,,0.00,VWS V13.01,2013-03-05 23:12:00,
2013-03-05 19:13:00,32.7,16.1,30.27,NNW,342,14.0,26.0,50,0.00,,,0.00,VWS V13.01,2013-03-05 23:13:00,
2013-03-05 19:17:00,32.7,16.6,30.28,North,359,4.0,16.0,51,0.00,,,0.00,VWS V13.01,2013-03-05 23:17:00,
2013-03-05 19:18:00,32.7,16.6,30.28,NNW,347,16.0,24.0,51,0.00,,,0.00,VWS V13.01,2013-03-05 23:18:00,
2013-03-05 19:22:00,32.5,16.4,30.28,NW,318,10.0,16.0,51,0.00,,,0.00,VWS V13.01,2013-03-05 23:22:00,
2013-03-05 19:23:00,32.5,16.4,30.28,NW,318,6.0,16.0,51,0.00,,,0.00,VWS V13.01,2013-03-05 23:23:00,
2013-03-05 19:27:00,32.5,16.4,30.28,NNW,336,16.0,18.0,51,0.00,,,0.00,VWS V13.01,2013-03-05 23:27:00,
2013-03-05 19:28:00,32.5,16.4,30.28,NNW,339,10.0,18.0,51,0.00,,,0.00,VWS V13.01,2013-03-05 23:28:00,
2013-03-05 19:30:00,30.7,16.5,30.29,WNW,295,6.0,12.0,55,0.00,,SCT055,0.00,VWS V14.01,2013-03-05 23:30:00,
2013-03-05 19:32:00,32.5,16.9,30.27,NW,326,14.0,20.0,52,0.00,,,0.00,VWS V13.01,2013-03-05 23:32:00,
2013-03-05 19:33:00,32.4,16.8,30.27,NW,319,14.0,20.0,52,0.00,,,0.00,VWS V13.01,2013-03-05 23:33:00,
2013-03-05 19:34:00,32.4,16.8,30.27,North,0,10.0,20.0,52,0.00,,,0.00,VWS V13.01,2013-03-05 23:34:00,
2013-03-05 19:37:00,32.4,16.8,30.27,NNW,343,14.0,20.0,52,0.00,,,0.00,VWS V13.01,2013-03-05 23:37:00,
2013-03-05 19:38:00,32.2,16.6,30.27,NNW,336,14.0,20.0,52,0.00,,,0.00,VWS V13.01,2013-03-05 23:38:00,
2013-03-05 19:39:00,32.2,16.6,30.27,North,352,8.0,16.0,52,0.00,,,0.00,VWS V13.01,2013-03-05 23:39:00,
2013-03-05 19:43:00,32.1,16.5,30.27,NNW,333,16.0,30.0,52,0.00,,,0.00,VWS V13.01,2013-03-05 23:43:00,
2013-03-05 19:44:00,32.1,16.5,30.27,North,0,12.0,28.0,52,0.00,,,0.00,VWS V13.01,2013-03-05 23:44:00,
2013-03-05 19:48:00,32.1,16.5,30.28,NNW,336,6.0,18.0,52,0.00,,,0.00,VWS V13.01,2013-03-05 23:48:00,
2013-03-05 19:49:00,32.1,16.5,30.28,NNW,336,10.0,20.0,52,0.00,,,0.00,VWS V13.01,2013-03-05 23:49:00,
2013-03-05 19:53:00,31.9,16.3,30.28,NNW,347,18.0,24.0,52,0.00,,,0.00,VWS V13.01,2013-03-05 23:53:00,
2013-03-05 19:54:00,31.9,16.3,30.28,NNW,329,10.0,22.0,52,0.00,,,0.00,VWS V13.01,2013-03-05 23:54:00,
2013-03-05 19:55:00,31.9,16.3,30.28,NNW,329,10.0,18.0,52,0.00,,,0.00,VWS V13.01,2013-03-05 23:55:00,
2013-03-05 19:58:00,31.9,16.3,30.28,NW,315,14.0,32.0,52,0.00,,,0.00,VWS V13.01,2013-03-05 23:58:00,
2013-03-05 19:59:00,31.9,16.3,30.28,NE,45,10.0,16.0,52,0.00,,,0.00,VWS V13.01,2013-03-05 23:59:00,
2013-03-05 20:00:00,31.8,16.2,30.28,NW,322,10.0,16.0,52,0.00,,,0.00,VWS V13.01,2013-03-06 00:00:00,
2013-03-05 20:03:00,31.8,15.8,30.29,WNW,292,16.0,32.0,51,0.00,,,0.00,VWS V13.01,2013-03-06 00:03:00,
2013-03-05 20:04:00,31.6,15.6,30.29,NNW,337,10.0,22.0,51,0.00,,,0.00,VWS V13.01,2013-03-06 00:04:00,
2013-03-05 20:05:00,31.6,15.6,30.29,NNW,335,4.0,22.0,51,0.00,,,0.00,VWS V13.01,2013-03-06 00:05:00,
2013-03-05 20:08:00,31.5,15.5,30.29,NW,311,12.0,16.0,51,0.00,,,0.00,VWS V13.01,2013-03-06 00:08:00,
2013-03-05 20:09:00,31.5,15.9,30.29,North,0,10.0,22.0,52,0.00,,,0.00,VWS V13.01,2013-03-06 00:09:00,
2013-03-05 20:10:00,31.5,15.9,30.29,North,6,6.0,22.0,52,0.00,,,0.00,VWS V13.01,2013-03-06 00:10:00,
2013-03-05 20:13:00,31.3,15.7,30.29,North,350,6.0,14.0,52,0.00,,,0.00,VWS V13.01,2013-03-06 00:13:00,
2013-03-05 20:15:00,31.2,15.6,30.29,NNW,335,4.0,12.0,52,0.00,,,0.00,VWS V13.01,2013-03-06 00:15:00,
2013-03-05 20:18:00,31.0,15.9,30.29,NNW,337,10.0,18.0,53,0.00,,,0.00,VWS V13.01,2013-03-06 00:18:00,
2013-03-05 20:20:00,31.0,15.9,30.29,NNW,340,10.0,16.0,53,0.00,,,0.00,VWS V13.01,2013-03-06 00:20:00,
2013-03-05 20:21:00,31.0,15.9,30.29,NW,326,10.0,14.0,53,0.00,,,0.00,VWS V13.01,2013-03-06 00:21:00,
2013-03-05 20:23:00,30.9,15.8,30.29,NNE,18,4.0,6.0,53,0.00,,,0.00,VWS V13.01,2013-03-06 00:23:00,
2013-03-05 20:25:00,30.9,16.2,30.29,NNW,346,6.0,8.0,54,0.00,,,0.00,VWS V13.01,2013-03-06 00:25:00,
2013-03-05 20:26:00,30.9,16.2,30.29,North,353,6.0,8.0,54,0.00,,,0.00,VWS V13.01,2013-03-06 00:26:00,
2013-03-05 20:29:00,30.7,16.0,30.29,NNW,342,10.0,16.0,54,0.00,,,0.00,VWS V13.01,2013-03-06 00:29:00,
2013-03-05 20:30:00,30.7,16.0,30.29,NW,309,2.0,12.0,54,0.00,,,0.00,VWS V13.01,2013-03-06 00:30:00,
2013-03-05 20:31:00,30.7,16.0,30.29,NW,309,0.0,12.0,54,0.00,,,0.00,VWS V13.01,2013-03-06 00:31:00,
2013-03-05 20:34:00,30.6,16.4,30.29,NNW,337,2.0,18.0,55,0.00,,,0.00,VWS V13.01,2013-03-06 00:34:00,
2013-03-05 20:36:00,30.6,16.4,30.29,NNW,330,10.0,14.0,55,0.00,,,0.00,VWS V13.01,2013-03-06 00:36:00,
2013-03-05 20:39:00,30.4,16.2,30.29,NW,325,6.0,20.0,55,0.00,,,0.00,VWS V13.01,2013-03-06 00:39:00,
2013-03-05 20:41:00,30.3,16.1,30.29,NW,319,16.0,28.0,55,0.00,,,0.00,VWS V13.01,2013-03-06 00:41:00,
2013-03-05 20:42:00,30.3,16.1,30.29,North,350,12.0,28.0,55,0.00,,,0.00,VWS V13.01,2013-03-06 00:42:00,
2013-03-05 20:44:00,30.3,16.1,30.29,NNW,329,6.0,16.0,55,0.00,,,0.00,VWS V13.01,2013-03-06 00:44:00,
2013-03-05 20:46:00,30.1,15.9,30.31,NNW,343,10.0,20.0,55,0.00,,,0.00,VWS V13.01,2013-03-06 00:46:00,
2013-03-05 20:47:00,30.1,15.9,30.31,NNW,346,10.0,20.0,55,0.00,,,0.00,VWS V13.01,2013-03-06 00:47:00,
2013-03-05 20:49:00,30.1,15.9,30.31,NW,306,6.0,14.0,55,0.00,,,0.00,VWS V13.01,2013-03-06 00:49:00,
2013-03-05 20:51:00,30.1,15.9,30.31,NW,316,6.0,10.0,55,0.00,,,0.00,VWS V13.01,2013-03-06 00:51:00,
2013-03-05 20:52:00,30.0,15.8,30.31,NNW,332,6.0,10.0,55,0.00,,,0.00,VWS V13.01,2013-03-06 00:52:00,
2013-03-05 20:54:00,30.0,15.8,30.31,NNW,328,6.0,16.0,55,0.00,,,0.00,VWS V13.01,2013-03-06 00:54:00,
2013-03-05 20:56:00,29.8,15.6,30.31,NNW,344,6.0,20.0,55,0.00,,,0.00,VWS V13.01,2013-03-06 00:56:00,
2013-03-05 20:57:00,29.8,15.6,30.31,North,0,8.0,20.0,55,0.00,,,0.00,VWS V13.01,2013-03-06 00:57:00,
2013-03-05 20:59:00,29.8,16.0,30.31,NNW,330,14.0,22.0,56,0.00,,,0.00,VWS V13.01,2013-03-06 00:59:00,
2013-03-05 21:00:00,28.1,16.8,30.33,NW,323,4.0,6.0,62,0.00,,SCT055,0.00,VWS V14.01,2013-03-06 01:00:00,
2013-03-05 21:01:00,29.7,15.9,30.31,NW,316,12.0,22.0,56,0.00,,,0.00,VWS V13.01,2013-03-06 01:01:00,
2013-03-05 21:02:00,29.7,15.9,30.31,NW,323,10.0,20.0,56,0.00,,,0.00,VWS V13.01,2013-03-06 01:02:00,
2013-03-05 21:04:00,29.7,15.9,30.31,WNW,292,14.0,14.0,56,0.00,,,0.00,VWS V13.01,2013-03-06 01:04:00,
2013-03-05 21:06:00,29.7,15.9,30.31,WNW,295,6.0,16.0,56,0.00,,,0.00,VWS V13.01,2013-03-06 01:06:00,
2013-03-05 21:07:00,29.7,15.9,30.31,North,0,12.0,12.0,56,0.00,,,0.00,VWS V13.01,2013-03-06 01:07:00,
2013-03-05 21:09:00,29.5,15.8,30.31,NNW,333,14.0,20.0,56,0.00,,,0.00,VWS V13.01,2013-03-06 01:09:00,
2013-03-05 21:12:00,29.5,15.8,30.31,NNW,343,4.0,12.0,56,0.00,,,0.00,VWS V13.01,2013-03-06 01:12:00,
2013-03-05 21:13:00,29.5,15.8,30.31,North,8,14.0,14.0,56,0.00,,,0.00,VWS V13.01,2013-03-06 01:13:00,
2013-03-05 21:14:00,29.4,16.1,30.31,NNW,343,12.0,14.0,57,0.00,,,0.00,VWS V13.01,2013-03-06 01:14:00,
2013-03-05 21:17:00,29.4,16.1,30.32,NNW,347,8.0,16.0,57,0.00,,,0.00,VWS V13.01,2013-03-06 01:17:00,
2013-03-05 21:18:00,29.4,16.1,30.32,NW,306,14.0,16.0,57,0.00,,,0.00,VWS V13.01,2013-03-06 01:18:00,
2013-03-05 21:19:00,29.3,16.0,30.32,NNW,347,14.0,16.0,57,0.00,,,0.00,VWS V13.01,2013-03-06 01:19:00,
2013-03-05 21:22:00,29.3,16.0,30.32,North,3,12.0,12.0,57,0.00,,,0.00,VWS V13.01,2013-03-06 01:22:00,
2013-03-05 21:23:00,29.3,16.4,30.32,NNW,340,12.0,14.0,58,0.00,,,0.00,VWS V13.01,2013-03-06 01:23:00,
2013-03-05 21:25:00,29.1,16.2,30.32,North,0,8.0,14.0,58,0.00,,,0.00,VWS V13.01,2013-03-06 01:25:00,
2013-03-05 21:27:00,29.1,16.2,30.32,NW,306,6.0,16.0,58,0.00,,,0.00,VWS V13.01,2013-03-06 01:27:00,
2013-03-05 21:28:00,29.0,16.1,30.32,NW,312,4.0,14.0,58,0.00,,,0.00,VWS V13.01,2013-03-06 01:28:00,
2013-03-05 21:29:00,29.0,16.1,30.32,NW,312,0.0,6.0,58,0.00,,,0.00,VWS V13.01,2013-03-06 01:29:00,
2013-03-05 21:30:00,29.0,16.1,30.32,WNW,295,4.0,10.0,58,0.00,,,0.00,VWS V13.01,2013-03-06 01:30:00,
2013-03-05 21:32:00,29.0,16.1,30.32,NW,322,6.0,14.0,58,0.00,,,0.00,VWS V13.01,2013-03-06 01:32:00,
2013-03-05 21:33:00,29.0,16.1,30.32,North,0,8.0,16.0,58,0.00,,,0.00,VWS V13.01,2013-03-06 01:33:00,
2013-03-05 21:34:00,28.8,16.3,30.32,NNW,342,4.0,16.0,59,0.00,,,0.00,VWS V13.01,2013-03-06 01:34:00,
2013-03-05 21:35:00,28.8,16.3,30.32,North,350,4.0,12.0,59,0.00,,,0.00,VWS V13.01,2013-03-06 01:35:00,
2013-03-05 21:37:00,28.8,16.3,30.32,NNW,335,6.0,16.0,59,0.00,,,0.00,VWS V13.01,2013-03-06 01:37:00,
2013-03-05 21:38:00,28.8,16.3,30.32,NW,316,10.0,16.0,59,0.00,,,0.00,VWS V13.01,2013-03-06 01:38:00,
2013-03-05 21:39:00,28.7,16.2,30.32,NW,320,8.0,12.0,59,0.00,,,0.00,VWS V13.01,2013-03-06 01:39:00,
2013-03-05 21:40:00,28.7,16.2,30.32,NW,325,2.0,10.0,59,0.00,,,0.00,VWS V13.01,2013-03-06 01:40:00,
2013-03-05 21:42:00,28.7,16.6,30.32,NW,316,4.0,6.0,60,0.00,,,0.00,VWS V13.01,2013-03-06 01:42:00,
2013-03-05 21:44:00,28.5,16.4,30.32,NW,319,14.0,20.0,60,0.00,,,0.00,VWS V13.01,2013-03-06 01:44:00,
2013-03-05 21:45:00,28.5,16.4,30.32,NNW,328,14.0,14.0,60,0.00,,,0.00,VWS V13.01,2013-03-06 01:45:00,
2013-03-05 21:48:00,28.4,16.3,30.32,North,350,10.0,14.0,60,0.00,,,0.00,VWS V13.01,2013-03-06 01:48:00,
2013-03-05 21:49:00,28.4,16.3,30.32,NNW,339,8.0,14.0,60,0.00,,,0.00,VWS V13.01,2013-03-06 01:49:00,
2013-03-05 21:51:00,28.4,16.7,30.32,NNW,346,6.0,14.0,61,0.00,,,0.00,VWS V13.01,2013-03-06 01:51:00,
2013-03-05 21:53:00,28.4,16.7,30.32,NW,326,10.0,14.0,61,0.00,,,0.00,VWS V13.01,2013-03-06 01:53:00,
2013-03-05 21:54:00,28.2,16.5,30.32,NW,318,2.0,14.0,61,0.00,,,0.00,VWS V13.01,2013-03-06 01:54:00,
2013-03-05 21:56:00,28.2,16.5,30.32,NW,318,4.0,16.0,61,0.00,,,0.00,VWS V13.01,2013-03-06 01:56:00,
2013-03-05 21:58:00,28.2,16.5,30.32,NW,320,0.0,12.0,61,0.00,,,0.00,VWS V13.01,2013-03-06 01:58:00,
2013-03-05 21:59:00,28.2,16.5,30.32,NW,320,2.0,8.0,61,0.00,,,0.00,VWS V13.01,2013-03-06 01:59:00,
2013-03-05 22:00:00,28.1,16.4,30.32,NW,320,2.0,6.0,61,0.00,,,0.00,VWS V13.01,2013-03-06 02:00:00,
2013-03-05 22:02:00,28.1,16.8,30.33,NW,323,2.0,8.0,62,0.00,,,0.00,VWS V13.01,2013-03-06 02:02:00,
2013-03-05 22:04:00,28.1,16.8,30.33,NNW,332,10.0,12.0,62,0.00,,,0.00,VWS V13.01,2013-03-06 02:04:00,
2013-03-05 22:05:00,27.9,16.6,30.33,NNW,329,6.0,12.0,62,0.00,,,0.00,VWS V13.01,2013-03-06 02:05:00,
2013-03-05 22:07:00,27.9,16.6,30.33,NW,323,8.0,12.0,62,0.00,,,0.00,VWS V13.01,2013-03-06 02:07:00,
2013-03-05 22:10:00,27.9,16.6,30.33,NW,320,14.0,22.0,62,0.00,,,0.00,VWS V13.01,2013-03-06 02:10:00,
2013-03-05 22:11:00,27.9,16.6,30.33,North,1,12.0,22.0,62,0.00,,,0.00,VWS V13.01,2013-03-06 02:11:00,
2013-03-05 22:13:00,27.8,16.5,30.33,NNW,346,4.0,12.0,62,0.00,,,0.00,VWS V13.01,2013-03-06 02:13:00,
2013-03-05 22:16:00,27.8,16.5,30.33,NNW,337,4.0,14.0,62,0.00,,,0.00,VWS V13.01,2013-03-06 02:16:00,
2013-03-05 22:18:00,27.8,16.9,30.33,NNW,339,14.0,16.0,63,0.00,,,0.00,VWS V13.01,2013-03-06 02:18:00,
2013-03-05 22:21:00,27.8,16.5,30.33,NNW,329,8.0,10.0,62,0.00,,,0.00,VWS V13.01,2013-03-06 02:21:00,
2013-03-05 22:22:00,27.8,16.5,30.33,WSW,254,6.0,16.0,62,0.00,,,0.00,VWS V13.01,2013-03-06 02:22:00,
2013-03-05 22:23:00,27.6,16.3,30.33,West,280,4.0,10.0,62,0.00,,,0.00,VWS V13.01,2013-03-06 02:23:00,
2013-03-05 22:26:00,27.6,16.7,30.33,NW,308,2.0,14.0,63,0.00,,,0.00,VWS V13.01,2013-03-06 02:26:00,
2013-03-05 22:27:00,27.6,16.7,30.33,NNW,335,14.0,14.0,63,0.00,,,0.00,VWS V13.01,2013-03-06 02:27:00,
2013-03-05 22:28:00,27.6,16.7,30.33,NNW,330,4.0,14.0,63,0.00,,,0.00,VWS V13.01,2013-03-06 02:28:00,
2013-03-05 22:30:00,26.1,16.3,30.35,NW,326,0.0,6.0,66,0.00,,SCT055,0.00,VWS V14.01,2013-03-06 02:30:00,
2013-03-05 22:31:00,27.6,16.7,30.34,NNW,339,10.0,14.0,63,0.00,,,0.00,VWS V13.01,2013-03-06 02:31:00,
2013-03-05 22:32:00,27.6,16.7,30.34,NW,325,2.0,12.0,63,0.00,,,0.00,VWS V13.01,2013-03-06 02:32:00,
2013-03-05 22:33:00,27.5,16.6,30.34,NNW,332,6.0,6.0,63,0.00,,,0.00,VWS V13.01,2013-03-06 02:33:00,
2013-03-05 22:36:00,27.5,16.6,30.34,NNW,346,6.0,14.0,63,0.00,,,0.00,VWS V13.01,2013-03-06 02:36:00,
2013-03-05 22:37:00,27.5,16.6,30.34,NNW,346,4.0,14.0,63,0.00,,,0.00,VWS V13.01,2013-03-06 02:37:00,
2013-03-05 22:39:00,27.3,16.4,30.34,NW,323,12.0,16.0,63,0.00,,,0.00,VWS V13.01,2013-03-06 02:39:00,
2013-03-05 22:41:00,27.3,16.4,30.34,North,11,6.0,12.0,63,0.00,,,0.00,VWS V13.01,2013-03-06 02:41:00,
2013-03-05 22:42:00,27.3,16.4,30.34,North,7,0.0,12.0,63,0.00,,,0.00,VWS V13.01,2013-03-06 02:42:00,
2013-03-05 22:43:00,27.3,16.4,30.34,North,7,0.0,10.0,63,0.00,,,0.00,VWS V13.01,2013-03-06 02:43:00,
2013-03-05 22:44:00,27.3,16.8,30.34,North,359,4.0,6.0,64,0.00,,,0.00,VWS V13.01,2013-03-06 02:44:00,
2013-03-05 22:47:00,27.2,16.6,30.34,NW,326,14.0,22.0,64,0.00,,,0.00,VWS V13.01,2013-03-06 02:47:00,
2013-03-05 22:48:00,27.2,16.6,30.34,NW,308,4.0,14.0,64,0.00,,,0.00,VWS V13.01,2013-03-06 02:48:00,
2013-03-05 22:49:00,27.2,16.6,30.34,NNW,346,2.0,12.0,64,0.00,,,0.00,VWS V13.01,2013-03-06 02:49:00,
2013-03-05 22:52:00,27.2,16.6,30.34,NNW,330,10.0,16.0,64,0.00,,,0.00,VWS V13.01,2013-03-06 02:52:00,
2013-03-05 22:53:00,27.0,16.5,30.34,NNW,329,6.0,16.0,64,0.00,,,0.00,VWS V13.01,2013-03-06 02:53:00,
2013-03-05 22:54:00,27.0,16.5,30.34,NNW,329,4.0,10.0,64,0.00,,,0.00,VWS V13.01,2013-03-06 02:54:00,
2013-03-05 22:57:00,27.0,16.5,30.34,NNW,329,8.0,14.0,64,0.00,,,0.00,VWS V13.01,2013-03-06 02:57:00,
2013-03-05 22:58:00,27.0,16.5,30.34,North,0,10.0,12.0,64,0.00,,,0.00,VWS V13.01,2013-03-06 02:58:00,
2013-03-05 22:59:00,27.0,16.5,30.34,North,356,4.0,12.0,64,0.00,,,0.00,VWS V13.01,2013-03-06 02:59:00,
2013-03-05 23:00:00,27.0,16.5,30.34,NNW,336,6.0,10.0,64,0.00,,,0.00,VWS V13.01,2013-03-06 03:00:00,
2013-03-05 23:02:00,26.9,16.4,30.35,NNW,329,6.0,12.0,64,0.00,,,0.00,VWS V13.01,2013-03-06 03:02:00,
2013-03-05 23:03:00,26.9,16.4,30.35,NW,326,2.0,12.0,64,0.00,,,0.00,VWS V13.01,2013-03-06 03:03:00,
2013-03-05 23:04:00,26.9,16.4,30.35,NNW,342,2.0,16.0,64,0.00,,,0.00,VWS V13.01,2013-03-06 03:04:00,
2013-03-05 23:05:00,26.9,16.4,30.35,NW,326,12.0,16.0,64,0.00,,,0.00,VWS V13.01,2013-03-06 03:05:00,
2013-03-05 23:08:00,26.7,16.2,30.35,North,353,6.0,14.0,64,0.00,,,0.00,VWS V13.01,2013-03-06 03:08:00,
2013-03-05 23:09:00,26.7,16.2,30.35,NNW,339,2.0,14.0,64,0.00,,,0.00,VWS V13.01,2013-03-06 03:09:00,
2013-03-05 23:10:00,26.7,16.5,30.35,NNW,339,4.0,10.0,65,0.00,,,0.00,VWS V13.01,2013-03-06 03:10:00,
2013-03-05 23:11:00,26.7,16.5,30.35,NNW,339,0.0,6.0,65,0.00,,,0.00,VWS V13.01,2013-03-06 03:11:00,
2013-03-05 23:13:00,26.7,16.5,30.35,North,352,4.0,8.0,65,0.00,,,0.00,VWS V13.01,2013-03-06 03:13:00,
2013-03-05 23:15:00,26.6,16.4,30.35,NNW,337,10.0,10.0,65,0.00,,,0.00,VWS V13.01,2013-03-06 03:15:00,
2013-03-05 23:16:00,26.6,16.4,30.34,NNW,337,2.0,10.0,65,0.00,,,0.00,VWS V13.01,2013-03-06 03:16:00,
2013-03-05 23:18:00,26.6,16.4,30.34,NNW,342,4.0,12.0,65,0.00,,,0.00,VWS V13.01,2013-03-06 03:18:00,
2013-03-05 23:20:00,26.4,16.2,30.34,NW,326,4.0,10.0,65,0.00,,,0.00,VWS V13.01,2013-03-06 03:20:00,
2013-03-05 23:22:00,26.4,16.2,30.34,NW,326,6.0,6.0,65,0.00,,,0.00,VWS V13.01,2013-03-06 03:22:00,
2013-03-05 23:23:00,26.4,16.6,30.34,NW,326,0.0,10.0,66,0.00,,,0.00,VWS V13.01,2013-03-06 03:23:00,
2013-03-05 23:25:00,26.3,16.5,30.34,NW,326,0.0,0.0,66,0.00,,,0.00,VWS V13.01,2013-03-06 03:25:00,
2013-03-05 23:27:00,26.3,16.5,30.34,NW,326,0.0,0.0,66,0.00,,,0.00,VWS V13.01,2013-03-06 03:27:00,
2013-03-05 23:28:00,26.3,16.5,30.34,NW,326,4.0,6.0,66,0.00,,,0.00,VWS V13.01,2013-03-06 03:28:00,
2013-03-05 23:30:00,26.1,16.3,30.34,NW,326,4.0,6.0,66,0.00,,,0.00,VWS V13.01,2013-03-06 03:30:00,
2013-03-05 23:31:00,26.1,16.3,30.35,NW,326,0.0,6.0,66,0.00,,,0.00,VWS V13.01,2013-03-06 03:31:00,
2013-03-05 23:32:00,26.1,16.3,30.35,NNW,328,0.0,4.0,66,0.00,,,0.00,VWS V13.01,2013-03-06 03:32:00,
2013-03-05 23:33:00,26.0,16.2,30.35,NNW,337,4.0,6.0,66,0.00,,,0.00,VWS V13.01,2013-03-06 03:33:00,
2013-03-05 23:35:00,26.0,16.2,30.35,NNW,337,0.0,4.0,66,0.00,,,0.00,VWS V13.01,2013-03-06 03:35:00,
2013-03-05 23:36:00,26.0,16.2,30.35,NNW,337,0.0,4.0,66,0.00,,,0.00,VWS V13.01,2013-03-06 03:36:00,
2013-03-05 23:37:00,26.0,16.2,30.35,NNW,337,0.0,0.0,66,0.00,,,0.00,VWS V13.01,2013-03-06 03:37:00,
2013-03-05 23:38:00,25.8,16.4,30.35,NNW,337,0.0,0.0,67,0.00,,,0.00,VWS V13.01,2013-03-06 03:38:00,
2013-03-05 23:40:00,25.8,16.4,30.35,NNW,337,0.0,0.0,67,0.00,,,0.00,VWS V13.01,2013-03-06 03:40:00,
2013-03-05 23:41:00,25.8,16.4,30.35,NNW,337,0.0,0.0,67,0.00,,,0.00,VWS V13.01,2013-03-06 03:41:00,
2013-03-05 23:42:00,25.8,16.4,30.35,NNW,337,0.0,0.0,67,0.00,,,0.00,VWS V13.01,2013-03-06 03:42:00,
2013-03-05 23:44:00,25.7,16.3,30.35,NNW,337,0.0,0.0,67,0.00,,,0.00,VWS V13.01,2013-03-06 03:44:00,
2013-03-05 23:46:00,25.7,16.3,30.36,NNW,337,0.0,0.0,67,0.00,,,0.00,VWS V13.01,2013-03-06 03:46:00,
2013-03-05 23:47:00,25.6,16.2,30.36,NNW,337,0.0,0.0,67,0.00,,,0.00,VWS V13.01,2013-03-06 03:47:00,
2013-03-05 23:49:00,25.6,16.5,30.36,NNW,337,4.0,6.0,68,0.00,,,0.00,VWS V13.01,2013-03-06 03:49:00,
2013-03-05 23:51:00,25.4,16.3,30.36,NNW,337,4.0,8.0,68,0.00,,,0.00,VWS V13.01,2013-03-06 03:51:00,
2013-03-05 23:52:00,25.4,16.3,30.36,NNW,333,4.0,8.0,68,0.00,,,0.00,VWS V13.01,2013-03-06 03:52:00,
2013-03-05 23:55:00,25.4,16.7,30.36,NNW,333,0.0,6.0,69,0.00,,,0.00,VWS V13.01,2013-03-06 03:55:00,
2013-03-05 23:56:00,25.4,16.7,30.36,NNW,332,0.0,2.0,69,0.00,,,0.00,VWS V13.01,2013-03-06 03:56:00,
2013-03-05 23:57:00,25.4,16.7,30.36,NNW,333,0.0,0.0,69,0.00,,,0.00,VWS V13.01,2013-03-06 03:57:00,
2013-03-05 23:58:00,25.3,16.6,30.36,NNW,332,0.0,0.0,69,0.00,,,0.00,VWS V13.01,2013-03-06 03:58:00,